| time (UTC) | temp F | wind direction | speed MPH | gust MPH | rain 1hr in | rain 24hr in | rain mn in | humidity % | barometer mb |
| 20260504174557 | 78 | 200 | 11.0 | 17.0 | 0.01 | 0.23 | 0.10 | 65 | 1005.9 |
| 20260504174456 | 78 | 203 | 11.0 | 17.0 | 0.01 | 0.23 | 0.10 | 66 | 1006.0 |
| 20260504174354 | 78 | 171 | 8.0 | 15.0 | 0.01 | 0.23 | 0.10 | 67 | 1005.9 |
| 20260504174253 | 78 | 175 | 5.0 | 16.0 | 0.01 | 0.23 | 0.10 | 66 | 1005.9 |
| 20260504174151 | 78 | 212 | 9.0 | 16.0 | 0.01 | 0.23 | 0.10 | 66 | 1005.9 |
| 20260504174049 | 78 | 214 | 10.0 | 16.0 | 0.01 | 0.23 | 0.10 | 65 | 1005.9 |
| 20260504173952 | 78 | 0 | 9.0 | 16.0 | 0.01 | 0.23 | 0.10 | 65 | 1005.8 |
| 20260504173853 | 78 | 0 | 8.0 | 16.0 | 0.01 | 0.23 | 0.10 | 66 | 1005.8 |
| 20260504173749 | 78 | 0 | 6.0 | 16.0 | 0.01 | 0.23 | 0.10 | 67 | 1005.8 |
| 20260504173648 | 77 | 183 | 5.0 | 16.0 | 0.01 | 0.23 | 0.10 | 67 | 1005.8 |
| 20260504173546 | 77 | 238 | 6.0 | 16.0 | 0.01 | 0.23 | 0.10 | 67 | 1005.8 |
| 20260504173444 | 77 | 217 | 9.0 | 16.0 | 0.01 | 0.23 | 0.10 | 67 | 1005.9 |
| 20260504173344 | 77 | 214 | 9.0 | 16.0 | 0.01 | 0.23 | 0.10 | 67 | 1006.0 |
| 20260504173240 | 77 | 0 | 7.0 | 17.0 | 0.01 | 0.23 | 0.10 | 67 | 1005.9 |
| 20260504173139 | 77 | 243 | 7.0 | 22.0 | 0.01 | 0.23 | 0.10 | 66 | 1006.0 |
| 20260504173039 | 76 | 183 | 8.0 | 22.0 | 0.01 | 0.23 | 0.10 | 67 | 1006.0 |
| 20260504172937 | 77 | 196 | 8.0 | 22.0 | 0.01 | 0.23 | 0.10 | 66 | 1006.1 |
| 20260504172834 | 77 | 226 | 8.0 | 22.0 | 0.01 | 0.23 | 0.10 | 66 | 1006.1 |
| 20260504172734 | 77 | 203 | 8.0 | 22.0 | 0.01 | 0.23 | 0.10 | 66 | 1006.2 |
| 20260504172633 | 77 | 197 | 10.0 | 22.0 | 0.01 | 0.23 | 0.10 | 66 | 1006.2 |
| 20260504172531 | 77 | 200 | 9.0 | 22.0 | 0.01 | 0.23 | 0.10 | 66 | 1006.3 |
| 20260504172430 | 77 | 189 | 9.0 | 22.0 | 0.01 | 0.23 | 0.10 | 68 | 1006.3 |
| 20260504172333 | 77 | 199 | 10.0 | 22.0 | 0.01 | 0.23 | 0.10 | 66 | 1006.2 |
| 20260504172231 | 76 | 158 | 12.0 | 19.0 | 0.01 | 0.23 | 0.10 | 67 | 1006.1 |
| 20260504172131 | 76 | 171 | 11.0 | 21.0 | 0.01 | 0.23 | 0.10 | 66 | 1006.1 |
| 20260504172031 | 76 | 172 | 10.0 | 21.0 | 0.01 | 0.23 | 0.10 | 65 | 1006.2 |
| 20260504171932 | 76 | 159 | 10.0 | 21.0 | 0.01 | 0.23 | 0.10 | 65 | 1006.1 |
| 20260504171832 | 76 | 176 | 11.0 | 21.0 | 0.01 | 0.23 | 0.10 | 65 | 1006.2 |
| 20260504171733 | 77 | 155 | 10.0 | 21.0 | 0.01 | 0.24 | 0.10 | 66 | 1006.2 |
| 20260504171632 | 77 | 202 | 11.0 | 21.0 | 0.01 | 0.24 | 0.10 | 66 | 1006.0 |
| 20260504171531 | 77 | 164 | 12.0 | 21.0 | 0.01 | 0.24 | 0.10 | 67 | 1006.2 |
| 20260504171431 | 76 | 192 | 13.0 | 21.0 | 0.01 | 0.24 | 0.10 | 66 | 1006.1 |
| 20260504171332 | 76 | 173 | 13.0 | 21.0 | 0.01 | 0.23 | 0.09 | 66 | 1006.2 |
| 20260504171232 | 76 | 152 | 13.0 | 21.0 | 0.01 | 0.23 | 0.09 | 66 | 1006.2 |
| 20260504171132 | 76 | 216 | 14.0 | 20.0 | 0.01 | 0.23 | 0.09 | 66 | 1006.3 |
| 20260504171031 | 76 | 180 | 14.0 | 20.0 | 0.01 | 0.23 | 0.09 | 66 | 1006.5 |
| 20260504170931 | 76 | 188 | 12.0 | 20.0 | 0.01 | 0.23 | 0.09 | 66 | 1006.4 |
| 20260504170831 | 77 | 158 | 13.0 | 20.0 | 0.01 | 0.23 | 0.09 | 67 | 1006.3 |
| 20260504170731 | 76 | 175 | 13.0 | 20.0 | 0.01 | 0.23 | 0.09 | 66 | 1006.5 |
| 20260504170631 | 76 | 202 | 12.0 | 20.0 | 0.01 | 0.23 | 0.09 | 67 | 1006.4 |
| 20260504170532 | 76 | 176 | 11.0 | 20.0 | 0.01 | 0.23 | 0.09 | 67 | 1006.5 |
| 20260504170431 | 76 | 173 | 12.0 | 20.0 | 0.01 | 0.23 | 0.09 | 68 | 1006.5 |
| 20260504170331 | 76 | 178 | 13.0 | 20.0 | 0.01 | 0.23 | 0.09 | 67 | 1006.6 |
| 20260504170232 | 76 | 182 | 12.0 | 20.0 | 0.01 | 0.23 | 0.09 | 67 | 1006.7 |
| 20260504170131 | 76 | 183 | 10.0 | 18.0 | 0.01 | 0.23 | 0.09 | 67 | 1006.5 |
| 20260504160433 | 75 | 217 | 7.0 | 21.0 | 0.01 | 0.23 | 0.08 | 71 | 1007.1 |
| 20260504160332 | 75 | 221 | 8.0 | 21.0 | 0.01 | 0.23 | 0.08 | 71 | 1007.2 |
| 20260504160230 | 75 | 258 | 9.0 | 21.0 | 0.01 | 0.23 | 0.08 | 71 | 1007.2 |
| 20260504160132 | 75 | 180 | 9.0 | 21.0 | 0.01 | 0.23 | 0.08 | 71 | 1007.1 |
| 20260504151102 | 73 | 219 | 6.0 | 14.0 | 0.01 | 0.23 | 0.07 | 72 | 1007.2 |
| 20260504151004 | 73 | 188 | 8.0 | 14.0 | 0.00 | 0.23 | 0.07 | 72 | 1007.2 |
| 20260504150902 | 73 | 185 | 9.0 | 18.0 | 0.00 | 0.23 | 0.07 | 72 | 1007.2 |
| 20260504150802 | 73 | 0 | 9.0 | 18.0 | 0.00 | 0.23 | 0.07 | 73 | 1007.2 |
| 20260504150703 | 73 | 179 | 8.0 | 18.0 | 0.01 | 0.23 | 0.07 | 73 | 1007.1 |
| 20260504150602 | 73 | 182 | 8.0 | 18.0 | 0.01 | 0.23 | 0.07 | 72 | 1007.1 |
| 20260504150502 | 72 | 179 | 9.0 | 18.0 | 0.01 | 0.23 | 0.07 | 72 | 1007.2 |
| 20260504150404 | 72 | 179 | 9.0 | 18.0 | 0.01 | 0.23 | 0.07 | 72 | 1007.2 |
| 20260504150302 | 72 | 200 | 8.0 | 18.0 | 0.01 | 0.23 | 0.07 | 72 | 1007.2 |
| 20260504150201 | 72 | 192 | 9.0 | 18.0 | 0.01 | 0.23 | 0.07 | 72 | 1007.2 |
| 20260504141331 | 69 | 165 | 7.0 | 16.0 | 0.01 | 0.24 | 0.07 | 74 | 1007.2 |
| 20260504141232 | 69 | 179 | 8.0 | 16.0 | 0.01 | 0.24 | 0.07 | 74 | 1007.2 |
| 20260504141132 | 69 | 173 | 9.0 | 16.0 | 0.01 | 0.24 | 0.07 | 74 | 1007.3 |
| 20260504141032 | 69 | 171 | 9.0 | 16.0 | 0.01 | 0.24 | 0.07 | 74 | 1007.2 |
| 20260504140932 | 69 | 151 | 9.0 | 16.0 | 0.01 | 0.24 | 0.07 | 74 | 1007.2 |
| 20260504140833 | 69 | 171 | 9.0 | 16.0 | 0.01 | 0.24 | 0.07 | 74 | 1007.2 |
| 20260504140731 | 69 | 200 | 9.0 | 16.0 | 0.01 | 0.23 | 0.06 | 74 | 1007.2 |
| 20260504140631 | 69 | 152 | 9.0 | 16.0 | 0.00 | 0.23 | 0.06 | 74 | 1007.1 |
| 20260504140531 | 69 | 179 | 10.0 | 16.0 | 0.00 | 0.23 | 0.06 | 74 | 1007.2 |
| 20260504140432 | 69 | 176 | 9.0 | 16.0 | 0.00 | 0.23 | 0.06 | 74 | 1007.2 |
| 20260504140331 | 69 | 175 | 7.0 | 12.0 | 0.00 | 0.23 | 0.06 | 75 | 1007.3 |
| 20260504140230 | 69 | 161 | 7.0 | 12.0 | 0.00 | 0.23 | 0.06 | 75 | 1007.3 |
| 20260504140132 | 69 | 162 | 7.0 | 12.0 | 0.00 | 0.23 | 0.06 | 75 | 1007.4 |
| 20260504130730 | 64 | 159 | 4.0 | 9.0 | 0.01 | 0.23 | 0.06 | 79 | 1007.1 |
| 20260504130632 | 64 | 157 | 4.0 | 9.0 | 0.01 | 0.23 | 0.06 | 80 | 1007.1 |
| 20260504130531 | 64 | 147 | 5.0 | 9.0 | 0.01 | 0.23 | 0.06 | 80 | 1007.0 |
| 20260504130431 | 64 | 151 | 5.0 | 9.0 | 0.01 | 0.23 | 0.06 | 80 | 1007.2 |
| 20260504130332 | 64 | 158 | 4.0 | 9.0 | 0.01 | 0.23 | 0.06 | 80 | 1007.2 |
| 20260504130231 | 64 | 162 | 5.0 | 9.0 | 0.01 | 0.23 | 0.06 | 80 | 1007.1 |
| 20260504130130 | 64 | 168 | 5.0 | 9.0 | 0.01 | 0.23 | 0.06 | 80 | 1007.2 |
| 20260504120232 | 60 | 145 | 2.0 | 4.0 | 0.01 | 0.23 | 0.05 | 85 | 1007.0 |
| 20260504120132 | 60 | 145 | 3.0 | 4.0 | 0.01 | 0.23 | 0.05 | 85 | 1007.0 |
| 20260504110703 | 60 | 152 | 2.0 | 4.0 | 0.00 | 0.23 | 0.04 | 83 | 1006.7 |
| 20260504110602 | 60 | 152 | 2.0 | 4.0 | 0.00 | 0.23 | 0.04 | 83 | 1006.6 |
| 20260504110502 | 60 | 152 | 2.0 | 5.0 | 0.00 | 0.23 | 0.04 | 83 | 1006.6 |
| 20260504110402 | 60 | 152 | 2.0 | 5.0 | 0.00 | 0.23 | 0.04 | 83 | 1006.7 |
| 20260504110304 | 60 | 152 | 2.0 | 5.0 | 0.00 | 0.23 | 0.04 | 83 | 1006.6 |
| 20260504110202 | 60 | 152 | 2.0 | 5.0 | 0.00 | 0.23 | 0.04 | 83 | 1006.6 |
| 20260504110104 | 60 | 152 | 2.0 | 5.0 | 0.00 | 0.23 | 0.04 | 83 | 1006.6 |
| 20260504100533 | 61 | 152 | 4.0 | 5.0 | 0.01 | 0.24 | 0.04 | 82 | 1006.8 |
| 20260504100432 | 61 | 152 | 4.0 | 5.0 | 0.01 | 0.24 | 0.04 | 82 | 1006.8 |
| 20260504100331 | 61 | 157 | 3.0 | 6.0 | 0.01 | 0.24 | 0.04 | 82 | 1006.8 |
| 20260504100231 | 61 | 142 | 3.0 | 6.0 | 0.01 | 0.24 | 0.04 | 82 | 1006.8 |
| 20260504100132 | 61 | 134 | 3.0 | 6.0 | 0.01 | 0.24 | 0.04 | 82 | 1007.0 |
| 20260504090130 | 62 | 152 | 5.0 | 7.0 | 0.01 | 0.25 | 0.03 | 81 | 1007.3 |
| 20260504081932 | 62 | 154 | 4.0 | 5.0 | 0.00 | 0.24 | 0.02 | 80 | 1007.5 |
| 20260504081831 | 62 | 151 | 4.0 | 5.0 | 0.00 | 0.25 | 0.02 | 80 | 1007.5 |
| 20260504081731 | 62 | 149 | 4.0 | 5.0 | 0.00 | 0.25 | 0.02 | 80 | 1007.5 |
| 20260504081630 | 62 | 149 | 3.0 | 6.0 | 0.00 | 0.25 | 0.02 | 80 | 1007.5 |
| 20260504081531 | 62 | 147 | 3.0 | 6.0 | 0.00 | 0.25 | 0.02 | 80 | 1007.5 |
| 20260504081432 | 62 | 147 | 4.0 | 6.0 | 0.00 | 0.25 | 0.02 | 80 | 1007.6 |
| 20260504081331 | 62 | 147 | 4.0 | 7.0 | 0.00 | 0.25 | 0.02 | 80 | 1007.6 |
| 20260504081231 | 62 | 147 | 3.0 | 7.0 | 0.00 | 0.25 | 0.02 | 80 | 1007.5 |
| 20260504081131 | 62 | 147 | 4.0 | 7.0 | 0.00 | 0.25 | 0.02 | 80 | 1007.5 |
| 20260504081031 | 62 | 148 | 4.0 | 7.0 | 0.00 | 0.25 | 0.02 | 80 | 1007.5 |
| 20260504080932 | 62 | 145 | 4.0 | 7.0 | 0.00 | 0.25 | 0.02 | 79 | 1007.5 |
| 20260504080831 | 62 | 138 | 4.0 | 7.0 | 0.01 | 0.25 | 0.02 | 80 | 1007.6 |
| 20260504080731 | 62 | 149 | 4.0 | 7.0 | 0.01 | 0.25 | 0.02 | 80 | 1007.4 |
| 20260504080628 | 62 | 148 | 5.0 | 7.0 | 0.01 | 0.25 | 0.02 | 80 | 1007.5 |
| 20260504080528 | 62 | 158 | 5.0 | 7.0 | 0.01 | 0.25 | 0.02 | 79 | 1007.5 |
| 20260504080427 | 62 | 141 | 4.0 | 7.0 | 0.01 | 0.25 | 0.02 | 79 | 1007.6 |
| 20260504080324 | 62 | 155 | 4.0 | 6.0 | 0.01 | 0.25 | 0.02 | 79 | 1007.5 |
| 20260504080223 | 62 | 152 | 5.0 | 6.0 | 0.01 | 0.25 | 0.02 | 79 | 1007.6 |
| 20260504080123 | 62 | 158 | 4.0 | 6.0 | 0.01 | 0.25 | 0.02 | 79 | 1007.6 |
| 20260504070402 | 63 | 192 | 0.0 | 3.0 | 0.00 | 0.25 | 0.01 | 79 | 1008.8 |
| 20260504070302 | 63 | 192 | 0.0 | 3.0 | 0.00 | 0.25 | 0.01 | 79 | 1008.9 |
| 20260504070203 | 63 | 192 | 0.0 | 3.0 | 0.00 | 0.25 | 0.01 | 79 | 1009.0 |
| 20260504060247 | 63 | 200 | 3.0 | 6.0 | 0.01 | 0.26 | 0.01 | 77 | 1009.3 |
| 20260504060146 | 63 | 206 | 2.0 | 6.0 | 0.01 | 0.26 | 0.01 | 77 | 1009.4 |
| 20260504050746 | 64 | 183 | 0.0 | 0.0 | 0.01 | 0.26 | 0.00 | 74 | 1009.5 |
| 20260504050644 | 64 | 183 | 0.0 | 0.0 | 0.01 | 0.26 | 0.00 | 74 | 1009.6 |
| 20260504050545 | 64 | 183 | 0.0 | 0.0 | 0.01 | 0.27 | 0.00 | 74 | 1009.6 |
| 20260504050446 | 64 | 182 | 0.0 | 0.0 | 0.01 | 0.27 | 0.00 | 74 | 1009.7 |
| 20260504050346 | 64 | 182 | 0.0 | 0.0 | 0.01 | 0.27 | 0.00 | 74 | 1009.7 |
| 20260504050246 | 64 | 182 | 0.0 | 0.0 | 0.01 | 0.27 | 0.00 | 74 | 1009.7 |
| 20260504050144 | 64 | 182 | 0.0 | 0.0 | 0.01 | 0.27 | 0.00 | 74 | 1009.7 |
| 20260504045944 | 64 | 182 | 0.0 | 0.0 | 0.01 | 0.27 | 0.27 | 74 | 1009.7 |
| 20260504045844 | 64 | 182 | 0.0 | 0.0 | 0.01 | 0.27 | 0.27 | 73 | 1009.7 |
| 20260504045746 | 64 | 182 | 0.0 | 0.0 | 0.01 | 0.27 | 0.27 | 73 | 1009.6 |
| 20260504045645 | 64 | 182 | 0.0 | 0.0 | 0.01 | 0.27 | 0.27 | 73 | 1009.6 |
| 20260504045540 | 64 | 182 | 0.0 | 0.0 | 0.01 | 0.27 | 0.27 | 73 | 1009.6 |
| 20260504045438 | 64 | 204 | 0.0 | 0.0 | 0.01 | 0.27 | 0.27 | 73 | 1009.6 |
| 20260504045337 | 64 | 209 | 0.0 | 0.0 | 0.01 | 0.27 | 0.27 | 73 | 1009.6 |
| 20260504045235 | 65 | 207 | 0.0 | 0.0 | 0.01 | 0.27 | 0.27 | 73 | 1009.6 |
| 20260504045134 | 65 | 204 | 0.0 | 0.0 | 0.01 | 0.27 | 0.27 | 73 | 1009.6 |
| 20260504045032 | 65 | 206 | 0.0 | 0.0 | 0.01 | 0.27 | 0.27 | 73 | 1009.7 |
| 20260504044931 | 65 | 204 | 0.0 | 0.0 | 0.01 | 0.27 | 0.27 | 73 | 1009.7 |
| 20260504044831 | 65 | 207 | 0.0 | 0.0 | 0.01 | 0.27 | 0.27 | 73 | 1009.7 |
| 20260504044732 | 65 | 206 | 0.0 | 0.0 | 0.01 | 0.27 | 0.27 | 73 | 1009.7 |
| 20260504044631 | 65 | 204 | 0.0 | 1.0 | 0.01 | 0.27 | 0.27 | 73 | 1009.8 |
| 20260504044530 | 65 | 203 | 0.0 | 1.0 | 0.01 | 0.27 | 0.27 | 73 | 1009.8 |
| 20260504044432 | 65 | 203 | 0.0 | 2.0 | 0.01 | 0.27 | 0.27 | 72 | 1009.8 |
| 20260504044331 | 65 | 202 | 0.0 | 2.0 | 0.01 | 0.27 | 0.27 | 72 | 1009.8 |
| 20260504044229 | 65 | 200 | 0.0 | 2.0 | 0.01 | 0.27 | 0.27 | 72 | 1009.8 |
| 20260504044128 | 65 | 204 | 0.0 | 2.0 | 0.01 | 0.27 | 0.27 | 72 | 1009.8 |
| 20260504044026 | 65 | 203 | 0.0 | 2.0 | 0.01 | 0.27 | 0.27 | 72 | 1009.7 |
| 20260504043924 | 65 | 192 | 0.0 | 2.0 | 0.01 | 0.27 | 0.27 | 72 | 1009.7 |
| 20260504043824 | 65 | 186 | 0.0 | 2.0 | 0.01 | 0.27 | 0.27 | 72 | 1009.7 |
| 20260504043721 | 65 | 185 | 0.0 | 2.0 | 0.01 | 0.27 | 0.27 | 72 | 1009.8 |
| 20260504043620 | 65 | 183 | 1.0 | 3.0 | 0.01 | 0.27 | 0.27 | 72 | 1009.8 |
| 20260504043518 | 65 | 183 | 1.0 | 4.0 | 0.01 | 0.27 | 0.27 | 72 | 1009.8 |
| 20260504043417 | 65 | 183 | 1.0 | 4.0 | 0.01 | 0.27 | 0.27 | 72 | 1009.9 |
| 20260504043316 | 65 | 183 | 1.0 | 4.0 | 0.01 | 0.27 | 0.27 | 72 | 1009.8 |
| 20260504043214 | 65 | 183 | 1.0 | 4.0 | 0.00 | 0.26 | 0.26 | 72 | 1009.8 |
| 20260504043112 | 65 | 183 | 1.0 | 4.0 | 0.00 | 0.26 | 0.26 | 72 | 1009.8 |
| 20260504043011 | 65 | 183 | 0.0 | 4.0 | 0.00 | 0.26 | 0.26 | 72 | 1009.8 |
| 20260504042910 | 65 | 183 | 1.0 | 4.0 | 0.00 | 0.26 | 0.26 | 71 | 1009.9 |
| 20260504042808 | 65 | 183 | 2.0 | 4.0 | 0.00 | 0.26 | 0.26 | 71 | 1009.9 |
| 20260504042706 | 65 | 183 | 3.0 | 4.0 | 0.00 | 0.26 | 0.26 | 71 | 1009.9 |
| 20260504042603 | 65 | 182 | 2.0 | 4.0 | 0.00 | 0.26 | 0.26 | 71 | 1009.9 |
| 20260504042502 | 65 | 182 | 2.0 | 6.0 | 0.00 | 0.27 | 0.26 | 71 | 1009.9 |
| 20260504042403 | 65 | 182 | 3.0 | 6.0 | 0.00 | 0.27 | 0.26 | 71 | 1009.9 |
| 20260504042304 | 65 | 182 | 2.0 | 6.0 | 0.00 | 0.27 | 0.26 | 71 | 1009.9 |
| 20260504042202 | 65 | 183 | 2.0 | 6.0 | 0.00 | 0.27 | 0.26 | 71 | 1009.8 |
| 20260504042103 | 65 | 186 | 2.0 | 6.0 | 0.00 | 0.27 | 0.26 | 71 | 1009.8 |
| 20260504042001 | 65 | 186 | 2.0 | 6.0 | 0.00 | 0.27 | 0.26 | 71 | 1009.8 |
| 20260504041903 | 65 | 186 | 2.0 | 6.0 | 0.00 | 0.27 | 0.26 | 71 | 1009.8 |
| 20260504041803 | 65 | 183 | 2.0 | 6.0 | 0.00 | 0.27 | 0.26 | 71 | 1009.8 |
| 20260504041702 | 65 | 193 | 2.0 | 6.0 | 0.00 | 0.27 | 0.26 | 70 | 1009.8 |
| 20260504041602 | 65 | 197 | 3.0 | 6.0 | 0.00 | 0.27 | 0.26 | 71 | 1009.8 |
| 20260504041502 | 65 | 193 | 3.0 | 5.0 | 0.00 | 0.27 | 0.26 | 71 | 1009.8 |
| 20260504041403 | 65 | 185 | 2.0 | 5.0 | 0.00 | 0.27 | 0.26 | 70 | 1009.9 |
| 20260504041302 | 65 | 186 | 2.0 | 5.0 | 0.01 | 0.27 | 0.26 | 70 | 1009.9 |
| 20260504041202 | 66 | 186 | 2.0 | 5.0 | 0.01 | 0.27 | 0.26 | 70 | 1010.0 |
| 20260504041103 | 66 | 186 | 3.0 | 5.0 | 0.01 | 0.27 | 0.26 | 70 | 1010.0 |
| 20260504041002 | 66 | 185 | 4.0 | 5.0 | 0.01 | 0.27 | 0.26 | 70 | 1010.0 |
| 20260504040900 | 66 | 190 | 4.0 | 5.0 | 0.01 | 0.27 | 0.26 | 70 | 1009.9 |
| 20260504040759 | 66 | 197 | 2.0 | 5.0 | 0.01 | 0.27 | 0.26 | 70 | 1010.0 |
| 20260504040657 | 66 | 192 | 0.0 | 4.0 | 0.01 | 0.27 | 0.26 | 70 | 1009.9 |
| 20260504040556 | 66 | 193 | 0.0 | 4.0 | 0.01 | 0.27 | 0.26 | 70 | 1009.9 |
| 20260504040454 | 66 | 195 | 0.0 | 4.0 | 0.01 | 0.27 | 0.26 | 70 | 1009.9 |
| 20260504040350 | 66 | 161 | 0.0 | 4.0 | 0.01 | 0.27 | 0.26 | 69 | 1009.8 |
| 20260504040248 | 66 | 188 | 0.0 | 4.0 | 0.01 | 0.27 | 0.26 | 69 | 1009.8 |
| 20260504040146 | 66 | 189 | 0.0 | 5.0 | 0.01 | 0.27 | 0.26 | 69 | 1009.9 |
| 20260504040046 | 66 | 188 | 1.0 | 5.0 | 0.01 | 0.27 | 0.26 | 69 | 1009.9 |
| 20260504035943 | 66 | 189 | 3.0 | 5.0 | 0.01 | 0.27 | 0.26 | 69 | 1009.9 |
| 20260504035844 | 66 | 189 | 3.0 | 5.0 | 0.01 | 0.27 | 0.26 | 69 | 1009.9 |
| 20260504035743 | 66 | 186 | 2.0 | 5.0 | 0.01 | 0.27 | 0.26 | 69 | 1009.8 |
| 20260504035644 | 66 | 186 | 2.0 | 5.0 | 0.01 | 0.27 | 0.26 | 69 | 1009.8 |
| 20260504035543 | 66 | 179 | 1.0 | 5.0 | 0.01 | 0.27 | 0.26 | 69 | 1009.8 |
| 20260504035445 | 66 | 179 | 2.0 | 5.0 | 0.01 | 0.27 | 0.26 | 69 | 1009.8 |
| 20260504035343 | 66 | 179 | 3.0 | 5.0 | 0.01 | 0.27 | 0.26 | 69 | 1010.0 |
| 20260504035243 | 66 | 179 | 3.0 | 6.0 | 0.01 | 0.27 | 0.26 | 69 | 1009.9 |
| 20260504035144 | 67 | 179 | 2.0 | 6.0 | 0.01 | 0.27 | 0.26 | 69 | 1009.9 |
| 20260504035043 | 67 | 161 | 3.0 | 6.0 | 0.01 | 0.27 | 0.26 | 69 | 1009.8 |
| 20260504034943 | 67 | 149 | 4.0 | 6.0 | 0.01 | 0.27 | 0.26 | 69 | 1009.9 |
| 20260504034843 | 67 | 149 | 4.0 | 6.0 | 0.01 | 0.27 | 0.26 | 69 | 1009.8 |
| 20260504034743 | 67 | 152 | 4.0 | 6.0 | 0.01 | 0.27 | 0.26 | 69 | 1009.8 |
| 20260504034642 | 67 | 154 | 4.0 | 6.0 | 0.01 | 0.27 | 0.26 | 68 | 1009.9 |
| 20260504034543 | 67 | 162 | 4.0 | 6.0 | 0.01 | 0.27 | 0.26 | 68 | 1009.8 |
| 20260504034444 | 67 | 169 | 4.0 | 6.0 | 0.01 | 0.27 | 0.26 | 68 | 1009.8 |
| 20260504034342 | 67 | 155 | 4.0 | 6.0 | 0.01 | 0.27 | 0.26 | 68 | 1009.7 |
| 20260504034243 | 67 | 151 | 3.0 | 6.0 | 0.01 | 0.27 | 0.26 | 68 | 1009.7 |
| 20260504034144 | 67 | 158 | 2.0 | 6.0 | 0.01 | 0.27 | 0.26 | 68 | 1009.8 |
| 20260504034043 | 67 | 158 | 3.0 | 6.0 | 0.01 | 0.28 | 0.26 | 68 | 1009.8 |
| 20260504033942 | 67 | 171 | 3.0 | 6.0 | 0.01 | 0.28 | 0.26 | 68 | 1009.8 |
| 20260504033843 | 67 | 158 | 3.0 | 7.0 | 0.01 | 0.28 | 0.26 | 68 | 1009.8 |
| 20260504033744 | 67 | 155 | 4.0 | 7.0 | 0.01 | 0.28 | 0.26 | 68 | 1009.7 |
| 20260504033643 | 67 | 155 | 4.0 | 7.0 | 0.01 | 0.28 | 0.26 | 68 | 1009.7 |
| 20260504033543 | 67 | 169 | 4.0 | 7.0 | 0.01 | 0.28 | 0.26 | 68 | 1009.7 |
| 20260504033442 | 67 | 162 | 4.0 | 7.0 | 0.01 | 0.28 | 0.26 | 68 | 1009.8 |
| 20260504033344 | 67 | 159 | 3.0 | 7.0 | 0.01 | 0.28 | 0.26 | 68 | 1009.8 |
| 20260504033244 | 67 | 155 | 4.0 | 7.0 | 0.01 | 0.28 | 0.26 | 68 | 1009.8 |
| 20260504033142 | 67 | 154 | 4.0 | 7.0 | 0.01 | 0.28 | 0.26 | 68 | 1009.8 |
| 20260504033044 | 67 | 166 | 5.0 | 7.0 | 0.01 | 0.28 | 0.26 | 68 | 1009.8 |
| 20260504032943 | 67 | 161 | 4.0 | 7.0 | 0.01 | 0.28 | 0.26 | 68 | 1009.9 |
| 20260504032844 | 67 | 152 | 4.0 | 6.0 | 0.01 | 0.28 | 0.26 | 68 | 1009.9 |
| 20260504032744 | 67 | 148 | 4.0 | 6.0 | 0.01 | 0.28 | 0.26 | 68 | 1009.9 |
| 20260504032644 | 67 | 151 | 4.0 | 6.0 | 0.01 | 0.28 | 0.26 | 67 | 1009.8 |
| 20260504032542 | 67 | 151 | 4.0 | 6.0 | 0.01 | 0.28 | 0.26 | 67 | 1009.8 |
| 20260504032443 | 67 | 154 | 4.0 | 6.0 | 0.01 | 0.28 | 0.26 | 67 | 1009.8 |
| 20260504032343 | 67 | 178 | 4.0 | 6.0 | 0.01 | 0.28 | 0.26 | 67 | 1009.7 |
| 20260504032242 | 67 | 168 | 4.0 | 6.0 | 0.01 | 0.28 | 0.26 | 67 | 1009.7 |
| 20260504032143 | 67 | 171 | 4.0 | 6.0 | 0.01 | 0.28 | 0.26 | 67 | 1009.7 |
| 20260504032042 | 67 | 183 | 4.0 | 6.0 | 0.01 | 0.28 | 0.26 | 67 | 1009.7 |
| 20260504031943 | 67 | 151 | 4.0 | 6.0 | 0.01 | 0.28 | 0.26 | 67 | 1009.7 |
| 20260504031843 | 67 | 169 | 4.0 | 6.0 | 0.01 | 0.28 | 0.26 | 67 | 1009.7 |
| 20260504031742 | 67 | 164 | 4.0 | 6.0 | 0.01 | 0.28 | 0.26 | 67 | 1009.6 |
| 20260504031643 | 68 | 178 | 4.0 | 6.0 | 0.01 | 0.28 | 0.26 | 67 | 1009.7 |
| 20260504031542 | 68 | 166 | 4.0 | 6.0 | 0.01 | 0.28 | 0.26 | 67 | 1009.7 |
| 20260504031442 | 68 | 165 | 5.0 | 7.0 | 0.01 | 0.28 | 0.26 | 66 | 1009.7 |
| 20260504031343 | 68 | 165 | 5.0 | 7.0 | 0.00 | 0.27 | 0.25 | 66 | 1009.7 |
| 20260504031242 | 68 | 168 | 5.0 | 7.0 | 0.00 | 0.27 | 0.25 | 66 | 1009.7 |
| 20260504031142 | 68 | 161 | 4.0 | 7.0 | 0.00 | 0.27 | 0.25 | 66 | 1009.7 |
| 20260504031043 | 68 | 164 | 4.0 | 7.0 | 0.00 | 0.27 | 0.25 | 66 | 1009.7 |
| 20260504030943 | 68 | 168 | 5.0 | 7.0 | 0.00 | 0.27 | 0.25 | 66 | 1009.7 |
| 20260504030843 | 68 | 169 | 5.0 | 7.0 | 0.00 | 0.27 | 0.25 | 66 | 1009.6 |
| 20260504030742 | 68 | 165 | 5.0 | 7.0 | 0.00 | 0.27 | 0.25 | 66 | 1009.6 |
| 20260504030643 | 68 | 161 | 5.0 | 7.0 | 0.00 | 0.27 | 0.25 | 66 | 1009.6 |
| 20260504030542 | 68 | 161 | 5.0 | 7.0 | 0.00 | 0.27 | 0.25 | 66 | 1009.5 |
| 20260504030442 | 68 | 152 | 5.0 | 7.0 | 0.00 | 0.27 | 0.25 | 65 | 1009.6 |
| 20260504030342 | 68 | 151 | 5.0 | 7.0 | 0.01 | 0.27 | 0.25 | 65 | 1009.5 |
| 20260504030243 | 68 | 162 | 5.0 | 7.0 | 0.01 | 0.27 | 0.25 | 65 | 1009.5 |
| 20260504030143 | 68 | 161 | 5.0 | 7.0 | 0.01 | 0.27 | 0.25 | 65 | 1009.5 |
| 20260504030044 | 68 | 171 | 5.0 | 7.0 | 0.01 | 0.27 | 0.25 | 65 | 1009.5 |
| 20260504025943 | 68 | 162 | 5.0 | 7.0 | 0.01 | 0.27 | 0.25 | 65 | 1009.5 |
| 20260504025843 | 68 | 175 | 4.0 | 6.0 | 0.01 | 0.27 | 0.25 | 65 | 1009.6 |
| 20260504025742 | 68 | 157 | 4.0 | 6.0 | 0.01 | 0.27 | 0.25 | 65 | 1009.5 |
| 20260504025642 | 68 | 154 | 3.0 | 6.0 | 0.01 | 0.27 | 0.25 | 65 | 1009.6 |
| 20260504025543 | 68 | 164 | 3.0 | 7.0 | 0.01 | 0.27 | 0.25 | 64 | 1009.6 |
| 20260504025442 | 68 | 166 | 3.0 | 7.0 | 0.01 | 0.27 | 0.25 | 64 | 1009.5 |
| 20260504025342 | 68 | 162 | 4.0 | 7.0 | 0.01 | 0.27 | 0.25 | 64 | 1009.6 |
| 20260504025241 | 69 | 161 | 4.0 | 7.0 | 0.01 | 0.28 | 0.25 | 64 | 1009.6 |
| 20260504025142 | 69 | 164 | 4.0 | 7.0 | 0.01 | 0.28 | 0.25 | 64 | 1009.5 |
| 20260504025042 | 69 | 165 | 5.0 | 7.0 | 0.01 | 0.28 | 0.25 | 64 | 1009.5 |
| 20260504024942 | 69 | 173 | 5.0 | 9.0 | 0.01 | 0.28 | 0.25 | 64 | 1009.4 |
| 20260504024843 | 69 | 171 | 5.0 | 9.0 | 0.01 | 0.28 | 0.25 | 64 | 1009.4 |
| 20260504024743 | 69 | 162 | 5.0 | 9.0 | 0.01 | 0.28 | 0.25 | 64 | 1009.4 |
| 20260504024643 | 69 | 164 | 5.0 | 9.0 | 0.01 | 0.28 | 0.25 | 64 | 1009.3 |
| 20260504024543 | 69 | 168 | 5.0 | 10.0 | 0.01 | 0.28 | 0.25 | 63 | 1009.3 |
| 20260504024442 | 69 | 169 | 4.0 | 10.0 | 0.01 | 0.28 | 0.25 | 63 | 1009.3 |
| 20260504024341 | 69 | 168 | 5.0 | 10.0 | 0.01 | 0.28 | 0.25 | 63 | 1009.3 |
| 20260504024243 | 69 | 176 | 5.0 | 10.0 | 0.01 | 0.28 | 0.25 | 63 | 1009.3 |
| 20260504024143 | 69 | 175 | 6.0 | 12.0 | 0.01 | 0.28 | 0.25 | 63 | 1009.3 |
| 20260504024041 | 69 | 173 | 6.0 | 12.0 | 0.01 | 0.28 | 0.25 | 63 | 1009.4 |
| 20260504023940 | 69 | 165 | 6.0 | 12.0 | 0.01 | 0.28 | 0.25 | 63 | 1009.5 |
| 20260504023843 | 69 | 172 | 6.0 | 12.0 | 0.01 | 0.28 | 0.25 | 63 | 1009.5 |
| 20260504023742 | 69 | 161 | 7.0 | 12.0 | 0.01 | 0.28 | 0.25 | 63 | 1009.4 |
| 20260504023641 | 69 | 176 | 6.0 | 12.0 | 0.01 | 0.28 | 0.25 | 63 | 1009.4 |
| 20260504023542 | 69 | 179 | 6.0 | 12.0 | 0.01 | 0.28 | 0.25 | 63 | 1009.4 |
| 20260504023442 | 69 | 162 | 6.0 | 12.0 | 0.01 | 0.28 | 0.25 | 63 | 1009.4 |
| 20260504023342 | 69 | 158 | 6.0 | 12.0 | 0.01 | 0.28 | 0.25 | 63 | 1009.4 |
| 20260504023241 | 69 | 193 | 7.0 | 12.0 | 0.01 | 0.28 | 0.25 | 63 | 1009.4 |
| 20260504023142 | 69 | 179 | 6.0 | 12.0 | 0.01 | 0.28 | 0.25 | 63 | 1009.4 |
| 20260504023041 | 69 | 172 | 5.0 | 12.0 | 0.01 | 0.28 | 0.25 | 63 | 1009.3 |
| 20260504022941 | 69 | 179 | 6.0 | 12.0 | 0.01 | 0.28 | 0.25 | 63 | 1009.3 |
| 20260504022842 | 69 | 168 | 6.0 | 12.0 | 0.01 | 0.28 | 0.25 | 63 | 1009.3 |
| 20260504022743 | 69 | 185 | 6.0 | 12.0 | 0.01 | 0.28 | 0.25 | 63 | 1009.3 |
| 20260504022641 | 69 | 185 | 6.0 | 12.0 | 0.01 | 0.28 | 0.25 | 63 | 1009.2 |
| 20260504022542 | 69 | 190 | 5.0 | 12.0 | 0.01 | 0.28 | 0.25 | 63 | 1009.3 |
| 20260504022443 | 69 | 204 | 4.0 | 9.0 | 0.01 | 0.28 | 0.25 | 63 | 1009.3 |
| 20260504022341 | 69 | 203 | 4.0 | 9.0 | 0.01 | 0.28 | 0.25 | 63 | 1009.2 |
| 20260504022241 | 69 | 182 | 5.0 | 9.0 | 0.01 | 0.28 | 0.25 | 63 | 1009.3 |
| 20260504022141 | 69 | 173 | 5.0 | 10.0 | 0.01 | 0.28 | 0.25 | 63 | 1009.2 |
| 20260504022041 | 69 | 192 | 6.0 | 10.0 | 0.01 | 0.28 | 0.25 | 63 | 1009.3 |
| 20260504021941 | 69 | 175 | 6.0 | 10.0 | 0.01 | 0.28 | 0.25 | 63 | 1009.3 |
| 20260504021841 | 69 | 169 | 5.0 | 10.0 | 0.01 | 0.28 | 0.25 | 63 | 1009.3 |
| 20260504021741 | 69 | 185 | 4.0 | 10.0 | 0.01 | 0.28 | 0.25 | 63 | 1009.3 |
| 20260504021641 | 70 | 168 | 5.0 | 10.0 | 0.01 | 0.28 | 0.25 | 63 | 1009.3 |
| 20260504021541 | 69 | 176 | 6.0 | 10.0 | 0.01 | 0.28 | 0.25 | 62 | 1009.2 |
| 20260504021442 | 70 | 178 | 6.0 | 10.0 | 0.01 | 0.28 | 0.25 | 62 | 1009.3 |
| 20260504021341 | 70 | 168 | 7.0 | 10.0 | 0.01 | 0.28 | 0.25 | 62 | 1009.1 |
| 20260504021242 | 70 | 185 | 7.0 | 10.0 | 0.01 | 0.28 | 0.25 | 63 | 1009.2 |
| 20260504021141 | 70 | 186 | 6.0 | 10.0 | 0.01 | 0.29 | 0.25 | 63 | 1009.2 |
| 20260504021042 | 70 | 154 | 6.0 | 10.0 | 0.01 | 0.29 | 0.25 | 63 | 1009.2 |
| 20260504020941 | 70 | 192 | 6.0 | 10.0 | 0.01 | 0.29 | 0.25 | 63 | 1009.2 |
| 20260504020841 | 70 | 173 | 6.0 | 10.0 | 0.01 | 0.29 | 0.25 | 63 | 1009.2 |
| 20260504020741 | 70 | 189 | 6.0 | 10.0 | 0.01 | 0.29 | 0.25 | 63 | 1009.2 |
| 20260504020641 | 70 | 188 | 4.0 | 9.0 | 0.01 | 0.29 | 0.25 | 63 | 1009.1 |
| 20260504020540 | 70 | 178 | 5.0 | 9.0 | 0.01 | 0.29 | 0.25 | 63 | 1009.1 |
| 20260504020438 | 70 | 169 | 6.0 | 9.0 | 0.00 | 0.28 | 0.24 | 63 | 1009.2 |
| 20260504020337 | 70 | 176 | 5.0 | 9.0 | 0.00 | 0.28 | 0.24 | 64 | 1009.1 |
| 20260504020235 | 70 | 209 | 4.0 | 9.0 | 0.00 | 0.28 | 0.24 | 64 | 1009.2 |
| 20260504020134 | 70 | 190 | 4.0 | 9.0 | 0.00 | 0.28 | 0.24 | 64 | 1009.1 |
| 20260504020034 | 70 | 185 | 4.0 | 9.0 | 0.00 | 0.28 | 0.24 | 64 | 1009.2 |
| 20260504015931 | 70 | 206 | 4.0 | 9.0 | 0.00 | 0.28 | 0.24 | 64 | 1009.1 |
| 20260504015832 | 70 | 175 | 3.0 | 9.0 | 0.00 | 0.28 | 0.24 | 64 | 1009.1 |
| 20260504015733 | 70 | 175 | 4.0 | 9.0 | 0.00 | 0.28 | 0.24 | 64 | 1009.1 |
| 20260504015631 | 70 | 178 | 5.0 | 9.0 | 0.00 | 0.28 | 0.24 | 64 | 1009.1 |
| 20260504015531 | 70 | 171 | 5.0 | 9.0 | 0.01 | 0.28 | 0.24 | 64 | 1009.0 |
| 20260504015430 | 70 | 158 | 6.0 | 9.0 | 0.01 | 0.28 | 0.24 | 64 | 1009.0 |
| 20260504015332 | 70 | 172 | 5.0 | 9.0 | 0.01 | 0.28 | 0.24 | 64 | 1009.1 |
| 20260504015231 | 70 | 172 | 4.0 | 9.0 | 0.01 | 0.28 | 0.24 | 64 | 1008.9 |
| 20260504015131 | 70 | 189 | 3.0 | 9.0 | 0.01 | 0.28 | 0.24 | 64 | 1009.0 |
| 20260504015032 | 70 | 175 | 4.0 | 10.0 | 0.01 | 0.28 | 0.24 | 64 | 1008.9 |
| 20260504014931 | 70 | 172 | 4.0 | 10.0 | 0.01 | 0.28 | 0.24 | 63 | 1008.9 |
| 20260504014831 | 70 | 188 | 3.0 | 11.0 | 0.01 | 0.28 | 0.24 | 63 | 1008.9 |
| 20260504014732 | 70 | 186 | 4.0 | 11.0 | 0.01 | 0.28 | 0.24 | 63 | 1008.9 |
| 20260504014631 | 70 | 176 | 5.0 | 11.0 | 0.01 | 0.28 | 0.24 | 63 | 1008.9 |
| 20260504014532 | 70 | 173 | 6.0 | 11.0 | 0.01 | 0.28 | 0.24 | 63 | 1009.0 |
| 20260504014431 | 70 | 176 | 5.0 | 11.0 | 0.01 | 0.28 | 0.24 | 62 | 1009.0 |
| 20260504014331 | 70 | 182 | 5.0 | 11.0 | 0.01 | 0.28 | 0.24 | 62 | 1009.0 |
| 20260504014230 | 70 | 176 | 6.0 | 11.0 | 0.01 | 0.28 | 0.24 | 62 | 1009.0 |
| 20260504014131 | 70 | 190 | 7.0 | 11.0 | 0.01 | 0.28 | 0.24 | 62 | 1009.0 |
| 20260504014032 | 71 | 197 | 7.0 | 11.0 | 0.01 | 0.28 | 0.24 | 62 | 1008.9 |
| 20260504013931 | 71 | 185 | 7.0 | 11.0 | 0.01 | 0.28 | 0.24 | 62 | 1009.0 |
| 20260504013831 | 71 | 185 | 6.0 | 10.0 | 0.01 | 0.28 | 0.24 | 62 | 1009.0 |
| 20260504013731 | 71 | 178 | 6.0 | 9.0 | 0.01 | 0.28 | 0.24 | 62 | 1008.9 |
| 20260504013632 | 71 | 197 | 6.0 | 9.0 | 0.01 | 0.28 | 0.24 | 61 | 1008.9 |
| 20260504013531 | 71 | 196 | 6.0 | 9.0 | 0.01 | 0.28 | 0.24 | 61 | 1008.9 |
| 20260504013432 | 71 | 209 | 4.0 | 7.0 | 0.01 | 0.28 | 0.24 | 61 | 1008.9 |
| 20260504013333 | 71 | 195 | 4.0 | 7.0 | 0.01 | 0.28 | 0.24 | 61 | 1009.0 |
| 20260504013230 | 71 | 190 | 4.0 | 7.0 | 0.01 | 0.29 | 0.24 | 61 | 1008.9 |
| 20260504013131 | 71 | 197 | 5.0 | 7.0 | 0.01 | 0.29 | 0.24 | 61 | 1008.9 |
| 20260504013031 | 71 | 196 | 4.0 | 6.0 | 0.01 | 0.29 | 0.24 | 61 | 1008.9 |
| 20260504012932 | 71 | 183 | 5.0 | 7.0 | 0.01 | 0.29 | 0.24 | 60 | 1008.8 |
| 20260504012831 | 72 | 209 | 5.0 | 7.0 | 0.01 | 0.29 | 0.24 | 60 | 1008.9 |
| 20260504012731 | 72 | 200 | 5.0 | 7.0 | 0.01 | 0.29 | 0.24 | 60 | 1008.9 |
| 20260504012633 | 72 | 182 | 5.0 | 7.0 | 0.01 | 0.29 | 0.24 | 59 | 1008.9 |
| 20260504012532 | 72 | 195 | 4.0 | 7.0 | 0.01 | 0.29 | 0.24 | 59 | 1008.9 |
| 20260504012431 | 72 | 190 | 5.0 | 10.0 | 0.01 | 0.29 | 0.24 | 59 | 1008.9 |
| 20260504012332 | 72 | 192 | 5.0 | 10.0 | 0.01 | 0.29 | 0.24 | 58 | 1008.8 |
| 20260504012231 | 72 | 192 | 4.0 | 10.0 | 0.01 | 0.29 | 0.24 | 58 | 1008.8 |
| 20260504012132 | 72 | 209 | 5.0 | 10.0 | 0.01 | 0.29 | 0.24 | 58 | 1008.8 |
| 20260504012031 | 72 | 196 | 6.0 | 10.0 | 0.01 | 0.29 | 0.24 | 58 | 1008.9 |
| 20260504011932 | 72 | 179 | 5.0 | 10.0 | 0.01 | 0.29 | 0.24 | 57 | 1008.8 |
| 20260504011832 | 73 | 186 | 5.0 | 10.0 | 0.01 | 0.29 | 0.24 | 57 | 1008.8 |
| 20260504011731 | 73 | 210 | 5.0 | 10.0 | 0.01 | 0.29 | 0.24 | 56 | 1008.7 |
| 20260504011632 | 73 | 193 | 6.0 | 10.0 | 0.01 | 0.29 | 0.24 | 56 | 1008.8 |
| 20260504011531 | 73 | 197 | 6.0 | 10.0 | 0.01 | 0.29 | 0.24 | 55 | 1008.8 |
| 20260504011431 | 73 | 206 | 6.0 | 10.0 | 0.01 | 0.29 | 0.24 | 55 | 1008.8 |
| 20260504011331 | 73 | 199 | 5.0 | 10.0 | 0.01 | 0.29 | 0.24 | 54 | 1008.7 |
| 20260504011232 | 73 | 207 | 5.0 | 9.0 | 0.01 | 0.29 | 0.24 | 54 | 1008.7 |
| 20260504011131 | 73 | 197 | 5.0 | 9.0 | 0.01 | 0.29 | 0.24 | 53 | 1008.7 |
| 20260504011031 | 73 | 196 | 4.0 | 9.0 | 0.01 | 0.29 | 0.24 | 53 | 1008.7 |
| 20260504010931 | 73 | 188 | 4.0 | 9.0 | 0.01 | 0.29 | 0.24 | 52 | 1008.7 |
| 20260504010831 | 74 | 0 | 5.0 | 9.0 | 0.01 | 0.29 | 0.24 | 52 | 1008.7 |
| 20260504010731 | 74 | 0 | 5.0 | 9.0 | 0.01 | 0.29 | 0.24 | 51 | 1008.7 |
| 20260504010631 | 74 | 213 | 4.0 | 6.0 | 0.01 | 0.29 | 0.24 | 51 | 1008.6 |
| 20260504010532 | 74 | 186 | 3.0 | 5.0 | 0.01 | 0.29 | 0.24 | 51 | 1008.6 |
| 20260504010430 | 74 | 193 | 2.0 | 5.0 | 0.01 | 0.29 | 0.24 | 51 | 1008.6 |
| 20260504010328 | 74 | 193 | 2.0 | 5.0 | 0.01 | 0.29 | 0.24 | 51 | 1008.6 |
| 20260504010227 | 74 | 193 | 2.0 | 5.0 | 0.01 | 0.29 | 0.24 | 50 | 1008.6 |
| 20260504010125 | 74 | 193 | 2.0 | 5.0 | 0.01 | 0.29 | 0.24 | 50 | 1008.5 |
| 20260504010025 | 74 | 196 | 2.0 | 5.0 | 0.01 | 0.29 | 0.24 | 50 | 1008.6 |
| 20260504005922 | 74 | 0 | 2.0 | 3.0 | 0.01 | 0.29 | 0.24 | 50 | 1008.6 |
| 20260504005821 | 74 | 199 | 1.0 | 3.0 | 0.01 | 0.29 | 0.24 | 50 | 1008.6 |
| 20260504005719 | 74 | 197 | 1.0 | 3.0 | 0.01 | 0.29 | 0.24 | 50 | 1008.6 |
| 20260504005618 | 74 | 196 | 1.0 | 3.0 | 0.01 | 0.29 | 0.24 | 50 | 1008.5 |
| 20260504005516 | 74 | 197 | 1.0 | 3.0 | 0.00 | 0.29 | 0.23 | 50 | 1008.6 |
| 20260504005415 | 74 | 196 | 0.0 | 3.0 | 0.00 | 0.29 | 0.23 | 51 | 1008.7 |
| 20260504005313 | 75 | 219 | 0.0 | 0.0 | 0.00 | 0.29 | 0.23 | 51 | 1008.6 |
| 20260504005212 | 75 | 219 | 0.0 | 0.0 | 0.00 | 0.29 | 0.23 | 51 | 1008.7 |
| 20260504005111 | 75 | 219 | 0.0 | 0.0 | 0.00 | 0.29 | 0.23 | 51 | 1008.7 |
| 20260504005009 | 75 | 220 | 0.0 | 0.0 | 0.00 | 0.29 | 0.23 | 51 | 1008.8 |
| 20260504004907 | 75 | 219 | 0.0 | 0.0 | 0.00 | 0.29 | 0.23 | 50 | 1008.7 |
| 20260504004807 | 75 | 219 | 0.0 | 0.0 | 0.00 | 0.29 | 0.23 | 50 | 1008.8 |
| 20260504004704 | 75 | 219 | 0.0 | 0.0 | 0.00 | 0.29 | 0.23 | 50 | 1008.7 |
| 20260504004604 | 75 | 219 | 0.0 | 0.0 | 0.01 | 0.29 | 0.23 | 50 | 1008.8 |
| 20260504004503 | 75 | 223 | 0.0 | 0.0 | 0.01 | 0.29 | 0.23 | 50 | 1008.7 |
| 20260504004403 | 75 | 219 | 0.0 | 0.0 | 0.01 | 0.29 | 0.23 | 50 | 1008.7 |
| 20260504004303 | 75 | 216 | 0.0 | 0.0 | 0.01 | 0.29 | 0.23 | 49 | 1008.7 |
| 20260504004202 | 75 | 216 | 0.0 | 0.0 | 0.01 | 0.29 | 0.23 | 49 | 1008.7 |
| 20260504004103 | 75 | 216 | 0.0 | 0.0 | 0.01 | 0.29 | 0.23 | 49 | 1008.6 |
| 20260504004002 | 75 | 0 | 0.0 | 1.0 | 0.01 | 0.29 | 0.23 | 49 | 1008.6 |
| 20260504003903 | 75 | 216 | 0.0 | 2.0 | 0.01 | 0.29 | 0.23 | 49 | 1008.6 |
| 20260504003802 | 75 | 216 | 0.0 | 2.0 | 0.01 | 0.29 | 0.23 | 49 | 1008.6 |
| 20260504003703 | 75 | 216 | 0.0 | 2.0 | 0.01 | 0.29 | 0.23 | 49 | 1008.7 |
| 20260504003604 | 76 | 216 | 0.0 | 2.0 | 0.01 | 0.29 | 0.23 | 49 | 1008.7 |
| 20260504003503 | 76 | 217 | 0.0 | 3.0 | 0.01 | 0.29 | 0.23 | 49 | 1008.7 |
| 20260504003402 | 76 | 217 | 0.0 | 3.0 | 0.01 | 0.29 | 0.23 | 48 | 1008.7 |
| 20260504003303 | 76 | 217 | 0.0 | 3.0 | 0.01 | 0.29 | 0.23 | 48 | 1008.8 |
| 20260504003202 | 76 | 219 | 0.0 | 3.0 | 0.01 | 0.29 | 0.23 | 48 | 1008.8 |
| 20260504003104 | 76 | 220 | 1.0 | 3.0 | 0.01 | 0.29 | 0.23 | 48 | 1008.8 |
| 20260504003003 | 76 | 220 | 1.0 | 3.0 | 0.01 | 0.29 | 0.23 | 48 | 1008.9 |
| 20260504002903 | 76 | 226 | 1.0 | 3.0 | 0.01 | 0.29 | 0.23 | 48 | 1008.9 |
| 20260504002802 | 76 | 220 | 1.0 | 3.0 | 0.01 | 0.29 | 0.23 | 48 | 1008.9 |
| 20260504002702 | 76 | 216 | 2.0 | 3.0 | 0.01 | 0.29 | 0.23 | 47 | 1008.9 |
| 20260504002603 | 76 | 214 | 2.0 | 3.0 | 0.01 | 0.29 | 0.23 | 47 | 1008.9 |
| 20260504002504 | 76 | 213 | 2.0 | 3.0 | 0.01 | 0.29 | 0.23 | 47 | 1009.0 |
| 20260504002402 | 76 | 213 | 2.0 | 3.0 | 0.01 | 0.29 | 0.23 | 47 | 1008.9 |
| 20260504002303 | 76 | 214 | 1.0 | 3.0 | 0.01 | 0.29 | 0.23 | 47 | 1008.8 |
| 20260504002203 | 76 | 213 | 1.0 | 3.0 | 0.01 | 0.29 | 0.23 | 47 | 1008.8 |
| 20260504002103 | 76 | 213 | 1.0 | 3.0 | 0.01 | 0.29 | 0.23 | 46 | 1008.8 |
| 20260504002003 | 76 | 213 | 1.0 | 4.0 | 0.01 | 0.29 | 0.23 | 46 | 1008.8 |
| 20260504001904 | 76 | 213 | 1.0 | 4.0 | 0.01 | 0.29 | 0.23 | 46 | 1008.8 |
| 20260504001803 | 76 | 214 | 1.0 | 6.0 | 0.01 | 0.29 | 0.23 | 46 | 1008.8 |
| 20260504001702 | 76 | 216 | 2.0 | 6.0 | 0.01 | 0.30 | 0.23 | 46 | 1008.8 |
| 20260504001603 | 76 | 214 | 2.0 | 6.0 | 0.01 | 0.30 | 0.23 | 45 | 1008.8 |
| 20260504001504 | 77 | 217 | 2.0 | 7.0 | 0.01 | 0.30 | 0.23 | 45 | 1008.9 |
| 20260504001402 | 77 | 214 | 2.0 | 7.0 | 0.01 | 0.30 | 0.23 | 45 | 1008.8 |
| 20260504001302 | 77 | 176 | 2.0 | 9.0 | 0.01 | 0.30 | 0.23 | 45 | 1008.9 |
| 20260504001203 | 77 | 175 | 2.0 | 9.0 | 0.01 | 0.30 | 0.23 | 45 | 1008.9 |
| 20260504001102 | 77 | 175 | 3.0 | 9.0 | 0.01 | 0.30 | 0.23 | 45 | 1008.8 |
| 20260504001003 | 77 | 180 | 3.0 | 9.0 | 0.01 | 0.30 | 0.23 | 44 | 1008.9 |
| 20260504000904 | 77 | 209 | 4.0 | 9.0 | 0.01 | 0.30 | 0.23 | 44 | 1008.9 |
| 20260504000803 | 77 | 199 | 4.0 | 9.0 | 0.01 | 0.30 | 0.23 | 44 | 1008.9 |
| 20260504000702 | 78 | 200 | 4.0 | 9.0 | 0.01 | 0.30 | 0.23 | 43 | 1008.9 |
| 20260504000601 | 78 | 0 | 4.0 | 9.0 | 0.01 | 0.30 | 0.23 | 43 | 1008.9 |
| 20260504000504 | 78 | 0 | 4.0 | 9.0 | 0.01 | 0.30 | 0.23 | 43 | 1008.9 |
| 20260504000402 | 78 | 0 | 4.0 | 9.0 | 0.01 | 0.30 | 0.23 | 43 | 1008.8 |
| 20260504000302 | 78 | 0 | 4.0 | 7.0 | 0.01 | 0.30 | 0.23 | 43 | 1008.8 |
| 20260504000204 | 78 | 0 | 4.0 | 7.0 | 0.01 | 0.30 | 0.23 | 43 | 1008.8 |
| 20260504000002 | 78 | 0 | 2.0 | 7.0 | 0.01 | 0.30 | 0.23 | 43 | 1008.8 |
| 20260503235901 | 78 | 0 | 3.0 | 9.0 | 0.01 | 0.30 | 0.23 | 43 | 1008.8 |
| 20260503235803 | 78 | 0 | 3.0 | 9.0 | 0.02 | 0.30 | 0.23 | 42 | 1008.8 |
| 20260503235702 | 78 | 0 | 4.0 | 9.0 | 0.02 | 0.30 | 0.23 | 42 | 1008.7 |
| 20260503235600 | 78 | 0 | 4.0 | 9.0 | 0.02 | 0.30 | 0.23 | 42 | 1008.8 |
| 20260503235459 | 78 | 0 | 5.0 | 9.0 | 0.02 | 0.30 | 0.23 | 42 | 1008.9 |
| 20260503235357 | 78 | 0 | 4.0 | 9.0 | 0.02 | 0.30 | 0.23 | 42 | 1008.9 |
| 20260503235255 | 78 | 0 | 3.0 | 9.0 | 0.02 | 0.30 | 0.23 | 42 | 1008.9 |
| 20260503235152 | 78 | 0 | 4.0 | 9.0 | 0.02 | 0.30 | 0.23 | 42 | 1009.0 |
| 20260503235052 | 78 | 0 | 5.0 | 9.0 | 0.02 | 0.31 | 0.23 | 41 | 1008.9 |
| 20260503234951 | 78 | 0 | 5.0 | 9.0 | 0.02 | 0.31 | 0.23 | 42 | 1009.1 |
| 20260503234850 | 78 | 0 | 4.0 | 7.0 | 0.02 | 0.31 | 0.23 | 43 | 1009.0 |
| 20260503234748 | 78 | 0 | 3.0 | 7.0 | 0.02 | 0.31 | 0.23 | 42 | 1009.0 |
| 20260503234643 | 78 | 0 | 3.0 | 7.0 | 0.02 | 0.30 | 0.22 | 42 | 1009.0 |
| 20260503234541 | 78 | 0 | 5.0 | 7.0 | 0.01 | 0.30 | 0.22 | 41 | 1008.9 |
| 20260503234440 | 78 | 180 | 4.0 | 7.0 | 0.01 | 0.30 | 0.22 | 41 | 1008.9 |
| 20260503234339 | 78 | 0 | 4.0 | 6.0 | 0.01 | 0.30 | 0.22 | 42 | 1008.9 |
| 20260503234238 | 78 | 0 | 4.0 | 6.0 | 0.01 | 0.30 | 0.22 | 43 | 1008.9 |
| 20260503234138 | 78 | 0 | 4.0 | 6.0 | 0.01 | 0.30 | 0.22 | 43 | 1008.9 |
| 20260503234038 | 78 | 0 | 3.0 | 6.0 | 0.01 | 0.30 | 0.22 | 44 | 1008.9 |
| 20260503233938 | 78 | 0 | 3.0 | 6.0 | 0.01 | 0.30 | 0.22 | 44 | 1008.9 |
| 20260503233837 | 78 | 0 | 3.0 | 6.0 | 0.01 | 0.30 | 0.22 | 44 | 1009.0 |
| 20260503233739 | 78 | 0 | 3.0 | 7.0 | 0.01 | 0.30 | 0.22 | 44 | 1009.0 |
| 20260503233637 | 78 | 0 | 3.0 | 7.0 | 0.01 | 0.30 | 0.22 | 44 | 1009.1 |
| 20260503233537 | 78 | 207 | 3.0 | 7.0 | 0.01 | 0.30 | 0.22 | 44 | 1009.1 |
| 20260503233439 | 78 | 228 | 3.0 | 7.0 | 0.01 | 0.30 | 0.22 | 43 | 1009.1 |
| 20260503233338 | 78 | 196 | 3.0 | 7.0 | 0.01 | 0.30 | 0.22 | 42 | 1008.9 |
| 20260503233238 | 78 | 168 | 3.0 | 7.0 | 0.01 | 0.30 | 0.22 | 42 | 1009.0 |
| 20260503233138 | 78 | 0 | 4.0 | 7.0 | 0.01 | 0.30 | 0.22 | 43 | 1009.0 |
| 20260503233037 | 78 | 0 | 4.0 | 7.0 | 0.01 | 0.30 | 0.22 | 43 | 1009.0 |
| 20260503232937 | 78 | 0 | 5.0 | 7.0 | 0.01 | 0.30 | 0.22 | 43 | 1008.9 |
| 20260503232838 | 78 | 0 | 5.0 | 7.0 | 0.01 | 0.30 | 0.22 | 42 | 1009.0 |
| 20260503232738 | 78 | 0 | 4.0 | 7.0 | 0.01 | 0.30 | 0.22 | 43 | 1008.9 |
| 20260503232637 | 79 | 0 | 4.0 | 6.0 | 0.01 | 0.30 | 0.22 | 44 | 1009.0 |
| 20260503232537 | 79 | 0 | 4.0 | 6.0 | 0.01 | 0.31 | 0.22 | 43 | 1009.0 |
| 20260503232439 | 78 | 0 | 4.0 | 9.0 | 0.01 | 0.31 | 0.22 | 43 | 1009.0 |
| 20260503232337 | 78 | 0 | 5.0 | 9.0 | 0.01 | 0.31 | 0.22 | 43 | 1009.0 |
| 20260503232237 | 79 | 0 | 5.0 | 9.0 | 0.01 | 0.31 | 0.22 | 42 | 1009.0 |
| 20260503232138 | 79 | 0 | 4.0 | 9.0 | 0.01 | 0.31 | 0.22 | 42 | 1009.0 |
| 20260503232038 | 79 | 0 | 4.0 | 9.0 | 0.01 | 0.31 | 0.22 | 43 | 1008.9 |
| 20260503231937 | 79 | 0 | 4.0 | 9.0 | 0.01 | 0.31 | 0.22 | 42 | 1009.0 |
| 20260503231838 | 79 | 0 | 4.0 | 9.0 | 0.01 | 0.31 | 0.22 | 42 | 1009.0 |
| 20260503231738 | 79 | 0 | 4.0 | 10.0 | 0.01 | 0.31 | 0.22 | 41 | 1009.1 |
| 20260503231637 | 79 | 0 | 5.0 | 10.0 | 0.01 | 0.31 | 0.22 | 42 | 1009.1 |
| 20260503231537 | 79 | 0 | 5.0 | 10.0 | 0.01 | 0.31 | 0.22 | 42 | 1009.1 |
| 20260503231437 | 79 | 0 | 5.0 | 10.0 | 0.01 | 0.31 | 0.22 | 41 | 1009.1 |
| 20260503231338 | 79 | 0 | 4.0 | 10.0 | 0.01 | 0.31 | 0.22 | 41 | 1009.1 |
| 20260503231237 | 79 | 0 | 5.0 | 10.0 | 0.01 | 0.31 | 0.22 | 41 | 1009.2 |
| 20260503231137 | 79 | 0 | 4.0 | 10.0 | 0.01 | 0.31 | 0.22 | 41 | 1009.2 |
| 20260503231039 | 79 | 0 | 4.0 | 10.0 | 0.01 | 0.31 | 0.22 | 42 | 1009.2 |
| 20260503230937 | 79 | 0 | 5.0 | 10.0 | 0.01 | 0.31 | 0.22 | 42 | 1009.2 |
| 20260503230837 | 79 | 0 | 5.0 | 10.0 | 0.01 | 0.31 | 0.22 | 44 | 1009.2 |
| 20260503230737 | 79 | 0 | 4.0 | 10.0 | 0.01 | 0.31 | 0.22 | 43 | 1009.1 |
| 20260503230638 | 79 | 0 | 4.0 | 10.0 | 0.02 | 0.31 | 0.22 | 43 | 1009.2 |
| 20260503230537 | 79 | 0 | 4.0 | 11.0 | 0.02 | 0.31 | 0.22 | 43 | 1009.1 |
| 20260503230437 | 79 | 0 | 4.0 | 12.0 | 0.02 | 0.31 | 0.22 | 43 | 1009.1 |
| 20260503230337 | 79 | 0 | 3.0 | 12.0 | 0.02 | 0.32 | 0.22 | 44 | 1009.2 |
| 20260503230236 | 79 | 0 | 4.0 | 12.0 | 0.02 | 0.32 | 0.22 | 42 | 1009.1 |
| 20260503230137 | 79 | 0 | 5.0 | 12.0 | 0.02 | 0.32 | 0.22 | 42 | 1009.2 |
| 20260503230038 | 79 | 0 | 6.0 | 12.0 | 0.02 | 0.32 | 0.22 | 41 | 1009.2 |
| 20260503225938 | 79 | 0 | 6.0 | 12.0 | 0.02 | 0.32 | 0.22 | 41 | 1009.1 |
| 20260503225837 | 79 | 0 | 4.0 | 12.0 | 0.02 | 0.31 | 0.21 | 43 | 1009.1 |
| 20260503225736 | 79 | 0 | 5.0 | 12.0 | 0.01 | 0.31 | 0.21 | 42 | 1009.2 |
| 20260503225638 | 79 | 0 | 8.0 | 12.0 | 0.01 | 0.31 | 0.21 | 40 | 1009.2 |
| 20260503225537 | 79 | 151 | 8.0 | 12.0 | 0.01 | 0.31 | 0.21 | 40 | 1009.1 |
| 20260503225437 | 80 | 186 | 8.0 | 12.0 | 0.01 | 0.31 | 0.21 | 40 | 1009.2 |
| 20260503225337 | 80 | 166 | 7.0 | 12.0 | 0.01 | 0.31 | 0.21 | 41 | 1009.1 |
| 20260503225238 | 80 | 185 | 6.0 | 11.0 | 0.01 | 0.31 | 0.21 | 42 | 1009.3 |
| 20260503225137 | 80 | 0 | 4.0 | 7.0 | 0.01 | 0.31 | 0.21 | 43 | 1009.1 |
| 20260503225036 | 80 | 161 | 4.0 | 9.0 | 0.01 | 0.31 | 0.21 | 43 | 1009.1 |
| 20260503224938 | 80 | 0 | 4.0 | 9.0 | 0.01 | 0.31 | 0.21 | 44 | 1009.2 |
| 20260503224836 | 80 | 0 | 2.0 | 9.0 | 0.01 | 0.31 | 0.21 | 43 | 1009.1 |
| 20260503224737 | 80 | 213 | 3.0 | 9.0 | 0.01 | 0.31 | 0.21 | 42 | 1009.1 |
| 20260503224636 | 80 | 206 | 4.0 | 9.0 | 0.01 | 0.31 | 0.21 | 42 | 1009.2 |
| 20260503224538 | 80 | 254 | 4.0 | 9.0 | 0.01 | 0.31 | 0.21 | 42 | 1009.2 |
| 20260503224437 | 80 | 216 | 4.0 | 9.0 | 0.01 | 0.31 | 0.21 | 43 | 1009.2 |
| 20260503224336 | 80 | 210 | 4.0 | 9.0 | 0.01 | 0.32 | 0.21 | 42 | 1009.3 |
| 20260503224237 | 80 | 230 | 5.0 | 9.0 | 0.01 | 0.32 | 0.21 | 42 | 1009.3 |
| 20260503224136 | 80 | 207 | 6.0 | 9.0 | 0.01 | 0.32 | 0.21 | 42 | 1009.4 |
| 20260503224036 | 80 | 0 | 4.0 | 9.0 | 0.01 | 0.32 | 0.21 | 42 | 1009.4 |
| 20260503223937 | 80 | 0 | 3.0 | 6.0 | 0.01 | 0.32 | 0.21 | 43 | 1009.4 |
| 20260503223837 | 80 | 234 | 4.0 | 6.0 | 0.01 | 0.32 | 0.21 | 44 | 1009.4 |
| 20260503223738 | 80 | 230 | 3.0 | 7.0 | 0.01 | 0.32 | 0.21 | 43 | 1009.5 |
| 20260503223636 | 80 | 228 | 3.0 | 7.0 | 0.01 | 0.32 | 0.21 | 42 | 1009.4 |
| 20260503223537 | 80 | 234 | 4.0 | 7.0 | 0.01 | 0.32 | 0.21 | 42 | 1009.5 |
| 20260503223436 | 80 | 261 | 4.0 | 11.0 | 0.01 | 0.32 | 0.21 | 44 | 1009.4 |
| 20260503223336 | 80 | 233 | 3.0 | 11.0 | 0.01 | 0.32 | 0.21 | 43 | 1009.4 |
| 20260503223238 | 80 | 250 | 4.0 | 11.0 | 0.01 | 0.32 | 0.21 | 43 | 1009.5 |
| 20260503223137 | 80 | 197 | 4.0 | 11.0 | 0.01 | 0.32 | 0.21 | 42 | 1009.5 |
| 20260503223035 | 80 | 0 | 4.0 | 11.0 | 0.01 | 0.32 | 0.21 | 42 | 1009.4 |
| 20260503222936 | 80 | 0 | 4.0 | 11.0 | 0.01 | 0.32 | 0.21 | 41 | 1009.3 |
| 20260503222837 | 80 | 0 | 5.0 | 11.0 | 0.01 | 0.32 | 0.21 | 41 | 1009.4 |
| 20260503222736 | 80 | 0 | 5.0 | 11.0 | 0.01 | 0.33 | 0.21 | 41 | 1009.3 |
| 20260503222636 | 80 | 0 | 5.0 | 11.0 | 0.01 | 0.33 | 0.21 | 41 | 1009.4 |
| 20260503222536 | 80 | 0 | 5.0 | 11.0 | 0.01 | 0.33 | 0.21 | 43 | 1009.3 |
| 20260503222437 | 80 | 0 | 3.0 | 7.0 | 0.01 | 0.33 | 0.21 | 43 | 1009.4 |
| 20260503222336 | 80 | 0 | 3.0 | 6.0 | 0.01 | 0.33 | 0.21 | 42 | 1009.4 |
| 20260503222235 | 80 | 209 | 4.0 | 6.0 | 0.02 | 0.33 | 0.21 | 43 | 1009.4 |
| 20260503222137 | 80 | 0 | 4.0 | 6.0 | 0.02 | 0.33 | 0.21 | 42 | 1009.5 |
| 20260503222036 | 80 | 0 | 4.0 | 6.0 | 0.02 | 0.33 | 0.21 | 42 | 1009.6 |
| 20260503221935 | 80 | 173 | 4.0 | 6.0 | 0.02 | 0.33 | 0.21 | 44 | 1009.5 |
| 20260503221837 | 80 | 0 | 4.0 | 6.0 | 0.02 | 0.33 | 0.21 | 45 | 1009.6 |
| 20260503221736 | 79 | 0 | 3.0 | 6.0 | 0.02 | 0.33 | 0.21 | 44 | 1009.6 |
| 20260503221635 | 79 | 0 | 3.0 | 10.0 | 0.02 | 0.33 | 0.21 | 43 | 1009.6 |
| 20260503221536 | 79 | 228 | 4.0 | 10.0 | 0.02 | 0.33 | 0.21 | 43 | 1009.6 |
| 20260503221435 | 79 | 219 | 4.0 | 10.0 | 0.02 | 0.33 | 0.21 | 43 | 1009.7 |
| 20260503221336 | 79 | 0 | 4.0 | 10.0 | 0.02 | 0.33 | 0.21 | 43 | 1009.7 |
| 20260503221235 | 79 | 233 | 4.0 | 10.0 | 0.02 | 0.33 | 0.21 | 43 | 1009.6 |
| 20260503221135 | 79 | 199 | 3.0 | 10.0 | 0.02 | 0.33 | 0.21 | 42 | 1009.6 |
| 20260503221036 | 79 | 0 | 3.0 | 10.0 | 0.02 | 0.33 | 0.21 | 41 | 1009.6 |
| 20260503220935 | 79 | 0 | 4.0 | 10.0 | 0.02 | 0.33 | 0.21 | 40 | 1009.6 |
| 20260503220836 | 79 | 0 | 6.0 | 10.0 | 0.02 | 0.34 | 0.21 | 41 | 1009.6 |
| 20260503220736 | 79 | 0 | 6.0 | 10.0 | 0.02 | 0.34 | 0.21 | 42 | 1009.7 |
| 20260503220636 | 80 | 0 | 5.0 | 10.0 | 0.01 | 0.33 | 0.20 | 42 | 1009.8 |
| 20260503220536 | 79 | 0 | 4.0 | 10.0 | 0.01 | 0.33 | 0.20 | 43 | 1009.8 |
| 20260503220437 | 80 | 0 | 4.0 | 10.0 | 0.01 | 0.33 | 0.20 | 42 | 1009.8 |
| 20260503220335 | 80 | 0 | 4.0 | 10.0 | 0.01 | 0.33 | 0.20 | 42 | 1009.8 |
| 20260503220235 | 80 | 0 | 4.0 | 10.0 | 0.01 | 0.33 | 0.20 | 41 | 1009.8 |
| 20260503220135 | 80 | 0 | 5.0 | 10.0 | 0.01 | 0.33 | 0.20 | 41 | 1009.8 |
| 20260503220037 | 80 | 179 | 6.0 | 10.0 | 0.01 | 0.33 | 0.20 | 41 | 1009.9 |
| 20260503215935 | 80 | 164 | 6.0 | 10.0 | 0.01 | 0.33 | 0.20 | 42 | 1010.0 |
| 20260503215836 | 80 | 144 | 6.0 | 10.0 | 0.01 | 0.33 | 0.20 | 40 | 1010.0 |
| 20260503215736 | 80 | 155 | 5.0 | 10.0 | 0.01 | 0.33 | 0.20 | 41 | 1010.0 |
| 20260503215635 | 80 | 0 | 4.0 | 10.0 | 0.01 | 0.33 | 0.20 | 42 | 1009.9 |
| 20260503215536 | 80 | 0 | 4.0 | 10.0 | 0.01 | 0.33 | 0.20 | 40 | 1009.9 |
| 20260503215435 | 80 | 0 | 5.0 | 10.0 | 0.01 | 0.33 | 0.20 | 40 | 1009.9 |
| 20260503215335 | 80 | 0 | 6.0 | 10.0 | 0.01 | 0.33 | 0.20 | 40 | 1009.9 |
| 20260503215235 | 80 | 0 | 5.0 | 10.0 | 0.01 | 0.34 | 0.20 | 42 | 1009.8 |
| 20260503215135 | 80 | 0 | 4.0 | 10.0 | 0.01 | 0.34 | 0.20 | 41 | 1009.8 |
| 20260503215037 | 80 | 192 | 5.0 | 10.0 | 0.01 | 0.34 | 0.20 | 43 | 1009.8 |
| 20260503214935 | 80 | 203 | 5.0 | 10.0 | 0.01 | 0.34 | 0.20 | 41 | 1009.8 |
| 20260503214835 | 80 | 0 | 6.0 | 12.0 | 0.01 | 0.34 | 0.20 | 41 | 1009.8 |
| 20260503214736 | 80 | 0 | 5.0 | 12.0 | 0.01 | 0.34 | 0.20 | 41 | 1009.8 |
| 20260503214637 | 80 | 0 | 3.0 | 14.0 | 0.01 | 0.34 | 0.20 | 44 | 1009.7 |
| 20260503214535 | 79 | 0 | 3.0 | 14.0 | 0.01 | 0.34 | 0.20 | 43 | 1009.8 |
| 20260503214435 | 79 | 0 | 4.0 | 14.0 | 0.01 | 0.34 | 0.20 | 42 | 1009.8 |
| 20260503214336 | 79 | 0 | 6.0 | 14.0 | 0.01 | 0.34 | 0.20 | 41 | 1009.8 |
| 20260503214234 | 79 | 0 | 7.0 | 14.0 | 0.01 | 0.34 | 0.20 | 40 | 1009.9 |
| 20260503214135 | 80 | 0 | 6.0 | 14.0 | 0.01 | 0.34 | 0.20 | 39 | 1009.8 |
| 20260503214037 | 80 | 0 | 8.0 | 14.0 | 0.01 | 0.34 | 0.20 | 40 | 1009.9 |
| 20260503213935 | 80 | 0 | 9.0 | 14.0 | 0.01 | 0.34 | 0.20 | 40 | 1009.8 |
| 20260503213835 | 80 | 145 | 10.0 | 14.0 | 0.02 | 0.34 | 0.20 | 41 | 1009.9 |
| 20260503213735 | 80 | 166 | 9.0 | 14.0 | 0.02 | 0.34 | 0.20 | 42 | 1009.9 |
| 20260503213636 | 81 | 0 | 5.0 | 12.0 | 0.02 | 0.34 | 0.20 | 41 | 1009.9 |
| 20260503213535 | 81 | 0 | 4.0 | 7.0 | 0.02 | 0.34 | 0.20 | 42 | 1009.9 |
| 20260503213434 | 81 | 0 | 4.0 | 7.0 | 0.02 | 0.35 | 0.20 | 41 | 1009.9 |
| 20260503213336 | 80 | 0 | 4.0 | 7.0 | 0.02 | 0.35 | 0.20 | 41 | 1009.8 |
| 20260503213234 | 80 | 0 | 4.0 | 10.0 | 0.02 | 0.35 | 0.20 | 40 | 1009.9 |
| 20260503213134 | 80 | 0 | 4.0 | 10.0 | 0.02 | 0.35 | 0.20 | 40 | 1009.9 |
| 20260503213035 | 80 | 0 | 3.0 | 10.0 | 0.02 | 0.35 | 0.20 | 40 | 1009.9 |
| 20260503212936 | 80 | 0 | 4.0 | 10.0 | 0.02 | 0.35 | 0.20 | 40 | 1009.8 |
| 20260503212835 | 80 | 0 | 5.0 | 10.0 | 0.02 | 0.35 | 0.20 | 40 | 1010.0 |
| 20260503212734 | 80 | 0 | 4.0 | 10.0 | 0.02 | 0.35 | 0.20 | 40 | 1010.0 |
| 20260503212635 | 80 | 0 | 3.0 | 10.0 | 0.02 | 0.35 | 0.20 | 41 | 1010.1 |
| 20260503212535 | 80 | 0 | 2.0 | 10.0 | 0.02 | 0.35 | 0.20 | 41 | 1010.1 |
| 20260503212434 | 80 | 0 | 4.0 | 10.0 | 0.02 | 0.35 | 0.20 | 41 | 1010.2 |
| 20260503212334 | 80 | 0 | 6.0 | 10.0 | 0.02 | 0.35 | 0.20 | 40 | 1010.2 |
| 20260503212236 | 80 | 0 | 4.0 | 10.0 | 0.01 | 0.34 | 0.19 | 39 | 1010.4 |
| 20260503212134 | 80 | 0 | 3.0 | 10.0 | 0.01 | 0.34 | 0.19 | 39 | 1010.3 |
| 20260503212034 | 80 | 0 | 4.0 | 10.0 | 0.01 | 0.34 | 0.19 | 39 | 1010.4 |
| 20260503211935 | 80 | 0 | 5.0 | 10.0 | 0.01 | 0.34 | 0.19 | 39 | 1010.4 |
| 20260503211835 | 80 | 0 | 6.0 | 10.0 | 0.01 | 0.35 | 0.19 | 39 | 1010.5 |
| 20260503211734 | 80 | 0 | 3.0 | 10.0 | 0.01 | 0.35 | 0.19 | 42 | 1010.5 |
| 20260503211634 | 80 | 0 | 0.0 | 9.0 | 0.01 | 0.35 | 0.19 | 43 | 1010.5 |
| 20260503211534 | 80 | 0 | 0.0 | 10.0 | 0.01 | 0.35 | 0.19 | 42 | 1010.5 |
| 20260503211434 | 80 | 0 | 1.0 | 11.0 | 0.01 | 0.35 | 0.19 | 41 | 1010.5 |
| 20260503211334 | 80 | 0 | 1.0 | 11.0 | 0.01 | 0.35 | 0.19 | 40 | 1010.5 |
| 20260503211236 | 80 | 0 | 2.0 | 11.0 | 0.01 | 0.35 | 0.19 | 41 | 1010.4 |
| 20260503211135 | 80 | 0 | 2.0 | 11.0 | 0.01 | 0.35 | 0.19 | 42 | 1010.4 |
| 20260503211034 | 80 | 0 | 2.0 | 11.0 | 0.01 | 0.35 | 0.19 | 42 | 1010.4 |
| 20260503210934 | 80 | 0 | 2.0 | 12.0 | 0.01 | 0.35 | 0.19 | 41 | 1010.5 |
| 20260503210835 | 80 | 0 | 4.0 | 12.0 | 0.01 | 0.35 | 0.19 | 40 | 1010.5 |
| 20260503210734 | 80 | 0 | 7.0 | 12.0 | 0.01 | 0.35 | 0.19 | 40 | 1010.5 |
| 20260503210634 | 80 | 0 | 8.0 | 12.0 | 0.01 | 0.35 | 0.19 | 40 | 1010.5 |
| 20260503210535 | 80 | 0 | 7.0 | 12.0 | 0.01 | 0.35 | 0.19 | 41 | 1010.6 |
| 20260503210434 | 80 | 0 | 5.0 | 12.0 | 0.01 | 0.35 | 0.19 | 41 | 1010.6 |
| 20260503210334 | 80 | 0 | 5.0 | 12.0 | 0.01 | 0.35 | 0.19 | 40 | 1010.6 |
| 20260503210234 | 80 | 0 | 7.0 | 12.0 | 0.01 | 0.35 | 0.19 | 39 | 1010.5 |
| 20260503210135 | 80 | 0 | 8.0 | 12.0 | 0.01 | 0.35 | 0.19 | 40 | 1010.6 |
| 20260503210034 | 80 | 0 | 6.0 | 12.0 | 0.01 | 0.36 | 0.19 | 41 | 1010.6 |
| 20260503205934 | 80 | 0 | 6.0 | 11.0 | 0.01 | 0.36 | 0.19 | 41 | 1010.6 |
| 20260503205836 | 80 | 182 | 6.0 | 11.0 | 0.01 | 0.36 | 0.19 | 40 | 1010.6 |
| 20260503205734 | 81 | 176 | 5.0 | 10.0 | 0.02 | 0.36 | 0.19 | 41 | 1010.7 |
| 20260503205634 | 81 | 0 | 6.0 | 10.0 | 0.02 | 0.36 | 0.19 | 40 | 1010.6 |
| 20260503205535 | 81 | 0 | 4.0 | 10.0 | 0.02 | 0.36 | 0.19 | 42 | 1010.6 |
| 20260503205435 | 81 | 0 | 3.0 | 13.0 | 0.02 | 0.36 | 0.19 | 42 | 1010.5 |
| 20260503205334 | 81 | 0 | 3.0 | 13.0 | 0.02 | 0.36 | 0.19 | 42 | 1010.5 |
| 20260503205234 | 81 | 0 | 3.0 | 13.0 | 0.02 | 0.36 | 0.19 | 41 | 1010.5 |
| 20260503205135 | 81 | 0 | 5.0 | 13.0 | 0.02 | 0.36 | 0.19 | 39 | 1010.5 |
| 20260503205034 | 81 | 0 | 6.0 | 13.0 | 0.02 | 0.36 | 0.19 | 39 | 1010.5 |
| 20260503204934 | 81 | 0 | 4.0 | 13.0 | 0.02 | 0.36 | 0.19 | 40 | 1010.5 |
| 20260503204835 | 81 | 0 | 2.0 | 13.0 | 0.02 | 0.36 | 0.19 | 41 | 1010.5 |
| 20260503204734 | 81 | 0 | 3.0 | 13.0 | 0.02 | 0.36 | 0.19 | 42 | 1010.7 |
| 20260503204634 | 81 | 0 | 6.0 | 13.0 | 0.02 | 0.36 | 0.19 | 43 | 1010.7 |
| 20260503204533 | 81 | 0 | 6.0 | 13.0 | 0.02 | 0.36 | 0.19 | 44 | 1010.6 |
| 20260503204435 | 81 | 0 | 3.0 | 9.0 | 0.02 | 0.36 | 0.19 | 41 | 1010.6 |
| 20260503204333 | 81 | 0 | 1.0 | 6.0 | 0.02 | 0.36 | 0.19 | 41 | 1010.7 |
| 20260503204233 | 81 | 0 | 0.0 | 7.0 | 0.02 | 0.37 | 0.19 | 41 | 1010.8 |
| 20260503204134 | 81 | 0 | 1.0 | 7.0 | 0.02 | 0.37 | 0.19 | 41 | 1010.8 |
| 20260503204032 | 81 | 0 | 3.0 | 7.0 | 0.02 | 0.37 | 0.19 | 41 | 1010.8 |
| 20260503203933 | 81 | 0 | 3.0 | 7.0 | 0.02 | 0.36 | 0.18 | 42 | 1010.8 |
| 20260503203833 | 81 | 0 | 2.0 | 9.0 | 0.01 | 0.36 | 0.18 | 43 | 1010.9 |
| 20260503203734 | 81 | 0 | 2.0 | 9.0 | 0.01 | 0.36 | 0.18 | 42 | 1011.0 |
| 20260503203633 | 81 | 0 | 3.0 | 9.0 | 0.01 | 0.36 | 0.18 | 40 | 1010.9 |
| 20260503203534 | 81 | 0 | 4.0 | 14.0 | 0.01 | 0.36 | 0.18 | 41 | 1010.9 |
| 20260503203433 | 81 | 0 | 5.0 | 14.0 | 0.01 | 0.36 | 0.18 | 42 | 1011.0 |
| 20260503203333 | 81 | 0 | 5.0 | 14.0 | 0.01 | 0.36 | 0.18 | 42 | 1011.0 |
| 20260503203233 | 81 | 0 | 4.0 | 14.0 | 0.01 | 0.36 | 0.18 | 41 | 1011.0 |
| 20260503203133 | 81 | 0 | 5.0 | 14.0 | 0.01 | 0.36 | 0.18 | 43 | 1011.0 |
| 20260503203034 | 81 | 180 | 5.0 | 14.0 | 0.01 | 0.36 | 0.18 | 43 | 1011.1 |
| 20260503202934 | 81 | 183 | 3.0 | 14.0 | 0.01 | 0.36 | 0.18 | 42 | 1011.0 |
| 20260503202833 | 81 | 0 | 2.0 | 14.0 | 0.01 | 0.36 | 0.18 | 41 | 1011.0 |
| 20260503202735 | 81 | 0 | 5.0 | 14.0 | 0.01 | 0.36 | 0.18 | 40 | 1011.1 |
| 20260503202633 | 81 | 149 | 9.0 | 14.0 | 0.01 | 0.36 | 0.18 | 40 | 1011.2 |
| 20260503202533 | 81 | 189 | 6.0 | 13.0 | 0.01 | 0.36 | 0.18 | 42 | 1011.2 |
| 20260503202433 | 81 | 185 | 3.0 | 9.0 | 0.01 | 0.37 | 0.18 | 43 | 1011.1 |
| 20260503202334 | 81 | 199 | 2.0 | 7.0 | 0.01 | 0.37 | 0.18 | 43 | 1011.1 |
| 20260503202233 | 81 | 192 | 3.0 | 7.0 | 0.01 | 0.37 | 0.18 | 42 | 1011.3 |
| 20260503202133 | 81 | 192 | 3.0 | 9.0 | 0.01 | 0.37 | 0.18 | 41 | 1011.2 |
| 20260503202034 | 81 | 214 | 3.0 | 9.0 | 0.01 | 0.37 | 0.18 | 42 | 1011.2 |
| 20260503201933 | 80 | 226 | 4.0 | 9.0 | 0.01 | 0.37 | 0.18 | 42 | 1011.3 |
| 20260503201833 | 80 | 169 | 4.0 | 9.0 | 0.01 | 0.37 | 0.18 | 44 | 1011.2 |
| 20260503201732 | 80 | 182 | 3.0 | 11.0 | 0.01 | 0.37 | 0.18 | 43 | 1011.3 |
| 20260503201633 | 80 | 237 | 3.0 | 11.0 | 0.01 | 0.37 | 0.18 | 43 | 1011.2 |
| 20260503201533 | 80 | 234 | 4.0 | 11.0 | 0.01 | 0.37 | 0.18 | 43 | 1011.1 |
| 20260503201433 | 80 | 186 | 5.0 | 11.0 | 0.02 | 0.37 | 0.18 | 41 | 1011.3 |
| 20260503201334 | 81 | 155 | 5.0 | 11.0 | 0.02 | 0.37 | 0.18 | 41 | 1011.2 |
| 20260503201233 | 81 | 158 | 3.0 | 11.0 | 0.02 | 0.37 | 0.18 | 41 | 1011.3 |
| 20260503201133 | 81 | 161 | 2.0 | 11.0 | 0.02 | 0.37 | 0.18 | 41 | 1011.3 |
| 20260503201033 | 81 | 158 | 4.0 | 11.0 | 0.02 | 0.37 | 0.18 | 40 | 1011.3 |
| 20260503200934 | 81 | 158 | 6.0 | 11.0 | 0.02 | 0.37 | 0.18 | 40 | 1011.4 |
| 20260503200833 | 81 | 183 | 6.0 | 11.0 | 0.02 | 0.37 | 0.18 | 41 | 1011.5 |
| 20260503200732 | 81 | 168 | 5.0 | 7.0 | 0.02 | 0.37 | 0.18 | 42 | 1011.5 |
| 20260503200634 | 81 | 213 | 4.0 | 7.0 | 0.02 | 0.38 | 0.18 | 43 | 1011.4 |
| 20260503200532 | 81 | 189 | 5.0 | 7.0 | 0.02 | 0.38 | 0.18 | 42 | 1011.5 |
| 20260503200433 | 81 | 185 | 4.0 | 7.0 | 0.02 | 0.38 | 0.18 | 43 | 1011.5 |
| 20260503200334 | 81 | 0 | 3.0 | 7.0 | 0.02 | 0.38 | 0.18 | 43 | 1011.5 |
| 20260503200234 | 81 | 0 | 1.0 | 6.0 | 0.02 | 0.38 | 0.18 | 43 | 1011.5 |
| 20260503200133 | 81 | 0 | 0.0 | 6.0 | 0.02 | 0.38 | 0.18 | 40 | 1011.6 |
| 20260503200032 | 81 | 0 | 1.0 | 7.0 | 0.02 | 0.38 | 0.18 | 40 | 1011.5 |
| 20260503195934 | 81 | 135 | 2.0 | 11.0 | 0.02 | 0.38 | 0.18 | 41 | 1011.6 |
| 20260503195833 | 81 | 0 | 3.0 | 11.0 | 0.02 | 0.37 | 0.17 | 40 | 1011.6 |
| 20260503195733 | 81 | 0 | 4.0 | 11.0 | 0.01 | 0.37 | 0.17 | 40 | 1011.6 |
| 20260503195632 | 81 | 0 | 4.0 | 11.0 | 0.01 | 0.37 | 0.17 | 41 | 1011.6 |
| 20260503195534 | 81 | 0 | 3.0 | 11.0 | 0.01 | 0.37 | 0.17 | 42 | 1011.7 |
| 20260503195432 | 81 | 0 | 3.0 | 11.0 | 0.01 | 0.37 | 0.17 | 41 | 1011.6 |
| 20260503195333 | 81 | 0 | 3.0 | 11.0 | 0.01 | 0.37 | 0.17 | 41 | 1011.6 |
| 20260503195234 | 81 | 0 | 3.0 | 11.0 | 0.01 | 0.37 | 0.17 | 40 | 1011.6 |
| 20260503195132 | 81 | 0 | 6.0 | 11.0 | 0.01 | 0.37 | 0.17 | 40 | 1011.7 |
| 20260503195032 | 81 | 0 | 5.0 | 11.0 | 0.01 | 0.37 | 0.17 | 42 | 1011.7 |
| 20260503194931 | 81 | 0 | 2.0 | 5.0 | 0.01 | 0.37 | 0.17 | 42 | 1011.8 |
| 20260503194833 | 81 | 0 | 1.0 | 4.0 | 0.01 | 0.37 | 0.17 | 41 | 1011.8 |
| 20260503194734 | 81 | 0 | 1.0 | 5.0 | 0.01 | 0.37 | 0.17 | 41 | 1011.8 |
| 20260503194633 | 81 | 0 | 1.0 | 5.0 | 0.01 | 0.37 | 0.17 | 42 | 1011.8 |
| 20260503194533 | 80 | 0 | 1.0 | 5.0 | 0.01 | 0.38 | 0.17 | 43 | 1011.8 |
| 20260503194432 | 80 | 0 | 2.0 | 5.0 | 0.01 | 0.38 | 0.17 | 42 | 1011.9 |
| 20260503194332 | 80 | 0 | 3.0 | 6.0 | 0.01 | 0.38 | 0.17 | 43 | 1011.9 |
| 20260503194232 | 80 | 0 | 2.0 | 6.0 | 0.01 | 0.38 | 0.17 | 43 | 1011.9 |
| 20260503194132 | 80 | 0 | 2.0 | 6.0 | 0.01 | 0.38 | 0.17 | 43 | 1011.9 |
| 20260503194034 | 80 | 276 | 2.0 | 6.0 | 0.01 | 0.38 | 0.17 | 44 | 1011.9 |
| 20260503193932 | 80 | 298 | 2.0 | 6.0 | 0.01 | 0.38 | 0.17 | 42 | 1011.9 |
| 20260503193832 | 80 | 214 | 2.0 | 6.0 | 0.01 | 0.38 | 0.17 | 42 | 1011.9 |
| 20260503193733 | 79 | 155 | 3.0 | 6.0 | 0.01 | 0.38 | 0.17 | 41 | 1011.9 |
| 20260503193632 | 79 | 158 | 4.0 | 7.0 | 0.02 | 0.38 | 0.17 | 43 | 1011.9 |
| 20260503193533 | 79 | 166 | 4.0 | 13.0 | 0.02 | 0.38 | 0.17 | 42 | 1011.9 |
| 20260503193432 | 79 | 158 | 4.0 | 16.0 | 0.02 | 0.38 | 0.17 | 43 | 1011.9 |
| 20260503193332 | 79 | 0 | 4.0 | 16.0 | 0.02 | 0.38 | 0.17 | 43 | 1011.9 |
| 20260503193232 | 79 | 0 | 4.0 | 16.0 | 0.02 | 0.38 | 0.17 | 43 | 1012.0 |
| 20260503193133 | 79 | 180 | 3.0 | 16.0 | 0.02 | 0.38 | 0.17 | 43 | 1011.9 |
| 20260503193032 | 79 | 175 | 3.0 | 16.0 | 0.02 | 0.38 | 0.17 | 43 | 1012.0 |
| 20260503192932 | 79 | 214 | 2.0 | 16.0 | 0.02 | 0.38 | 0.17 | 43 | 1012.1 |
| 20260503192833 | 79 | 214 | 5.0 | 16.0 | 0.02 | 0.38 | 0.17 | 42 | 1012.1 |
| 20260503192718 | 79 | 0 | 7.0 | 16.0 | 0.02 | 0.38 | 0.17 | 42 | 1012.2 |
| 20260503192616 | 79 | 152 | 9.0 | 16.0 | 0.02 | 0.38 | 0.17 | 41 | 1012.2 |
| 20260503192516 | 79 | 157 | 9.0 | 16.0 | 0.02 | 0.38 | 0.17 | 41 | 1012.1 |
| 20260503192413 | 80 | 0 | 8.0 | 12.0 | 0.02 | 0.38 | 0.17 | 42 | 1012.2 |
| 20260503192312 | 80 | 166 | 7.0 | 11.0 | 0.02 | 0.38 | 0.17 | 41 | 1012.2 |
| 20260503192211 | 80 | 188 | 7.0 | 11.0 | 0.02 | 0.38 | 0.17 | 41 | 1012.3 |
| 20260503192109 | 80 | 173 | 6.0 | 11.0 | 0.02 | 0.38 | 0.17 | 42 | 1012.3 |
| 20260503192007 | 80 | 166 | 5.0 | 6.0 | 0.02 | 0.38 | 0.17 | 42 | 1012.2 |
| 20260503191906 | 80 | 189 | 3.0 | 6.0 | 0.02 | 0.38 | 0.17 | 42 | 1012.1 |
| 20260503191804 | 80 | 34 | 0.0 | 4.0 | 0.02 | 0.38 | 0.17 | 42 | 1012.2 |
| 20260503191703 | 79 | 0 | 0.0 | 4.0 | 0.02 | 0.38 | 0.17 | 42 | 1012.1 |
| 20260503191603 | 79 | 0 | 0.0 | 4.0 | 0.02 | 0.38 | 0.17 | 42 | 1012.2 |
| 20260503191504 | 79 | 0 | 1.0 | 5.0 | 0.01 | 0.37 | 0.16 | 43 | 1012.2 |
| 20260503191402 | 79 | 0 | 1.0 | 9.0 | 0.01 | 0.37 | 0.16 | 42 | 1012.2 |
| 20260503191301 | 79 | 0 | 2.0 | 9.0 | 0.01 | 0.37 | 0.16 | 43 | 1012.2 |
| 20260503191202 | 79 | 0 | 2.0 | 12.0 | 0.01 | 0.37 | 0.16 | 45 | 1012.3 |
| 20260503191103 | 79 | 0 | 2.0 | 13.0 | 0.01 | 0.37 | 0.16 | 45 | 1012.3 |
| 20260503191002 | 79 | 164 | 1.0 | 13.0 | 0.01 | 0.37 | 0.16 | 44 | 1012.4 |
| 20260503190902 | 78 | 190 | 1.0 | 13.0 | 0.01 | 0.37 | 0.16 | 43 | 1012.4 |
| 20260503190803 | 78 | 190 | 2.0 | 15.0 | 0.01 | 0.37 | 0.16 | 43 | 1012.5 |
| 20260503190703 | 78 | 200 | 3.0 | 15.0 | 0.01 | 0.38 | 0.16 | 43 | 1012.5 |
| 20260503190602 | 78 | 189 | 5.0 | 15.0 | 0.01 | 0.38 | 0.16 | 43 | 1012.6 |
| 20260503190502 | 78 | 140 | 7.0 | 15.0 | 0.01 | 0.38 | 0.16 | 43 | 1012.6 |
| 20260503190403 | 78 | 173 | 8.0 | 15.0 | 0.01 | 0.38 | 0.16 | 43 | 1012.7 |
| 20260503190302 | 78 | 162 | 9.0 | 15.0 | 0.01 | 0.38 | 0.16 | 42 | 1012.6 |
| 20260503190202 | 79 | 166 | 9.0 | 15.0 | 0.01 | 0.38 | 0.16 | 42 | 1012.6 |
| 20260503190002 | 79 | 0 | 9.0 | 15.0 | 0.01 | 0.38 | 0.16 | 43 | 1012.5 |
| 20260503185902 | 79 | 145 | 8.0 | 15.0 | 0.01 | 0.38 | 0.16 | 43 | 1012.4 |
| 20260503185804 | 79 | 165 | 6.0 | 10.0 | 0.01 | 0.38 | 0.16 | 43 | 1012.5 |
| 20260503185702 | 79 | 154 | 6.0 | 10.0 | 0.01 | 0.38 | 0.16 | 43 | 1012.5 |
| 20260503185602 | 80 | 142 | 5.0 | 10.0 | 0.01 | 0.38 | 0.16 | 44 | 1012.5 |
| 20260503185501 | 80 | 0 | 4.0 | 10.0 | 0.02 | 0.38 | 0.16 | 44 | 1012.5 |
| 20260503185359 | 79 | 0 | 2.0 | 10.0 | 0.02 | 0.38 | 0.16 | 47 | 1012.5 |
| 20260503185258 | 79 | 234 | 2.0 | 10.0 | 0.02 | 0.38 | 0.16 | 47 | 1012.5 |
| 20260503185156 | 79 | 240 | 2.0 | 10.0 | 0.02 | 0.38 | 0.16 | 47 | 1012.6 |
| 20260503185055 | 79 | 186 | 5.0 | 10.0 | 0.02 | 0.38 | 0.16 | 47 | 1012.6 |
| 20260503184953 | 79 | 183 | 6.0 | 10.0 | 0.02 | 0.38 | 0.16 | 43 | 1012.6 |
| 20260503184852 | 79 | 200 | 5.0 | 9.0 | 0.02 | 0.38 | 0.16 | 45 | 1012.6 |
| 20260503184750 | 79 | 240 | 5.0 | 9.0 | 0.02 | 0.38 | 0.16 | 45 | 1012.7 |
| 20260503184648 | 79 | 285 | 4.0 | 9.0 | 0.02 | 0.38 | 0.16 | 46 | 1012.6 |
| 20260503184547 | 79 | 269 | 3.0 | 9.0 | 0.02 | 0.38 | 0.16 | 45 | 1012.6 |
| 20260503184446 | 79 | 261 | 4.0 | 9.0 | 0.02 | 0.38 | 0.16 | 45 | 1012.6 |
| 20260503184344 | 79 | 281 | 5.0 | 10.0 | 0.02 | 0.38 | 0.16 | 44 | 1012.6 |
| 20260503184243 | 79 | 261 | 4.0 | 10.0 | 0.02 | 0.38 | 0.16 | 46 | 1012.7 |
| 20260503184141 | 79 | 209 | 3.0 | 10.0 | 0.02 | 0.38 | 0.16 | 46 | 1012.7 |
| 20260503184039 | 79 | 244 | 3.0 | 10.0 | 0.02 | 0.38 | 0.16 | 46 | 1012.7 |
| 20260503183938 | 79 | 209 | 3.0 | 10.0 | 0.02 | 0.38 | 0.16 | 46 | 1012.7 |
| 20260503183838 | 79 | 224 | 2.0 | 10.0 | 0.02 | 0.38 | 0.16 | 43 | 1012.7 |
| 20260503183733 | 79 | 195 | 4.0 | 10.0 | 0.02 | 0.38 | 0.16 | 43 | 1012.8 |
| 20260503183633 | 79 | 199 | 6.0 | 10.0 | 0.01 | 0.37 | 0.15 | 43 | 1012.8 |
| 20260503183531 | 79 | 204 | 7.0 | 11.0 | 0.01 | 0.37 | 0.15 | 43 | 1012.8 |
| 20260503183430 | 79 | 196 | 6.0 | 11.0 | 0.01 | 0.37 | 0.15 | 44 | 1012.8 |
| 20260503183331 | 79 | 183 | 5.0 | 11.0 | 0.01 | 0.37 | 0.15 | 43 | 1012.9 |
| 20260503183232 | 79 | 159 | 2.0 | 11.0 | 0.01 | 0.37 | 0.15 | 43 | 1012.7 |
| 20260503183132 | 78 | 157 | 1.0 | 11.0 | 0.01 | 0.37 | 0.15 | 43 | 1012.9 |
| 20260503183031 | 78 | 157 | 2.0 | 11.0 | 0.01 | 0.37 | 0.15 | 44 | 1012.9 |
| 20260503182932 | 78 | 155 | 3.0 | 11.0 | 0.01 | 0.37 | 0.15 | 44 | 1012.8 |
| 20260503182831 | 78 | 155 | 5.0 | 11.0 | 0.01 | 0.37 | 0.15 | 45 | 1012.9 |
| 20260503182731 | 78 | 183 | 6.0 | 11.0 | 0.01 | 0.37 | 0.15 | 44 | 1013.0 |
| 20260503182630 | 78 | 189 | 4.0 | 10.0 | 0.01 | 0.37 | 0.15 | 45 | 1013.0 |
| 20260503182532 | 78 | 204 | 3.0 | 10.0 | 0.01 | 0.37 | 0.15 | 47 | 1013.0 |
| 20260503182430 | 78 | 154 | 5.0 | 10.0 | 0.01 | 0.37 | 0.15 | 45 | 1013.0 |
| 20260503182330 | 78 | 169 | 6.0 | 10.0 | 0.01 | 0.37 | 0.15 | 44 | 1013.0 |
| 20260503182232 | 78 | 162 | 6.0 | 10.0 | 0.01 | 0.37 | 0.15 | 44 | 1012.9 |
| 20260503182131 | 78 | 130 | 6.0 | 10.0 | 0.01 | 0.37 | 0.15 | 44 | 1012.9 |
| 20260503182030 | 78 | 142 | 6.0 | 10.0 | 0.01 | 0.37 | 0.15 | 44 | 1012.9 |
| 20260503181929 | 78 | 148 | 4.0 | 10.0 | 0.01 | 0.37 | 0.15 | 45 | 1013.0 |
| 20260503181832 | 78 | 165 | 2.0 | 10.0 | 0.02 | 0.37 | 0.15 | 44 | 1012.9 |
| 20260503181730 | 78 | 183 | 4.0 | 10.0 | 0.02 | 0.37 | 0.15 | 44 | 1013.0 |
| 20260503181631 | 78 | 190 | 5.0 | 10.0 | 0.02 | 0.37 | 0.15 | 44 | 1012.9 |
| 20260503181531 | 78 | 140 | 6.0 | 10.0 | 0.02 | 0.37 | 0.15 | 44 | 1013.0 |
| 20260503181431 | 78 | 147 | 6.0 | 10.0 | 0.02 | 0.37 | 0.15 | 45 | 1013.1 |
| 20260503181330 | 78 | 128 | 4.0 | 9.0 | 0.02 | 0.37 | 0.15 | 46 | 1013.0 |
| 20260503181231 | 78 | 298 | 3.0 | 11.0 | 0.02 | 0.37 | 0.15 | 48 | 1013.1 |
| 20260503181132 | 78 | 193 | 5.0 | 11.0 | 0.02 | 0.37 | 0.15 | 48 | 1013.2 |
| 20260503181031 | 78 | 213 | 5.0 | 11.0 | 0.02 | 0.37 | 0.15 | 44 | 1013.2 |
| 20260503180930 | 78 | 157 | 4.0 | 11.0 | 0.02 | 0.37 | 0.15 | 45 | 1013.2 |
| 20260503180830 | 78 | 144 | 4.0 | 11.0 | 0.02 | 0.37 | 0.15 | 44 | 1013.2 |
| 20260503180730 | 78 | 216 | 4.0 | 11.0 | 0.02 | 0.37 | 0.15 | 45 | 1013.3 |
| 20260503180630 | 78 | 130 | 5.0 | 11.0 | 0.02 | 0.37 | 0.15 | 44 | 1013.3 |
| 20260503180530 | 78 | 142 | 6.0 | 11.0 | 0.02 | 0.37 | 0.15 | 45 | 1013.3 |
| 20260503180432 | 78 | 228 | 7.0 | 11.0 | 0.02 | 0.37 | 0.15 | 44 | 1013.3 |
| 20260503180330 | 78 | 180 | 5.0 | 11.0 | 0.02 | 0.37 | 0.15 | 45 | 1013.3 |
| 20260503180231 | 78 | 168 | 3.0 | 11.0 | 0.02 | 0.37 | 0.15 | 43 | 1013.3 |
| 20260503180131 | 78 | 182 | 4.0 | 11.0 | 0.02 | 0.37 | 0.15 | 43 | 1013.2 |
| 20260503180030 | 78 | 169 | 3.0 | 11.0 | 0.02 | 0.37 | 0.15 | 45 | 1013.3 |
| 20260503175930 | 78 | 154 | 2.0 | 11.0 | 0.02 | 0.37 | 0.15 | 45 | 1013.3 |
| 20260503175831 | 78 | 154 | 4.0 | 11.0 | 0.02 | 0.37 | 0.15 | 43 | 1013.3 |
| 20260503175730 | 78 | 157 | 6.0 | 11.0 | 0.02 | 0.37 | 0.15 | 44 | 1013.4 |
| 20260503175630 | 78 | 161 | 6.0 | 11.0 | 0.02 | 0.37 | 0.15 | 44 | 1013.4 |
| 20260503175530 | 78 | 195 | 5.0 | 9.0 | 0.02 | 0.36 | 0.14 | 45 | 1013.5 |
| 20260503175431 | 78 | 166 | 4.0 | 9.0 | 0.01 | 0.36 | 0.14 | 46 | 1013.4 |
| 20260503175330 | 78 | 165 | 3.0 | 10.0 | 0.01 | 0.36 | 0.14 | 47 | 1013.5 |
| 20260503175230 | 78 | 152 | 2.0 | 10.0 | 0.01 | 0.36 | 0.14 | 45 | 1013.5 |
| 20260503175131 | 78 | 135 | 2.0 | 10.0 | 0.01 | 0.36 | 0.14 | 43 | 1013.5 |
| 20260503175030 | 78 | 138 | 1.0 | 11.0 | 0.01 | 0.36 | 0.14 | 44 | 1013.5 |
| 20260503174930 | 78 | 138 | 1.0 | 11.0 | 0.01 | 0.36 | 0.14 | 44 | 1013.5 |
| 20260503174830 | 78 | 135 | 2.0 | 11.0 | 0.01 | 0.36 | 0.14 | 44 | 1013.6 |
| 20260503174731 | 78 | 137 | 3.0 | 11.0 | 0.01 | 0.36 | 0.14 | 45 | 1013.6 |
| 20260503174630 | 78 | 147 | 5.0 | 11.0 | 0.01 | 0.36 | 0.14 | 45 | 1013.6 |